Logo Toni Monterde

Sports Timing

Ranking

Moonrace 2014

Clt Dor. Cognoms i nom Clt Sexe Sexe Temps Diferència Diploma
1 814 AIT KHAMOUCH Abderrahman -1 Home 00:23:40.000 Diploma
2 297 RUIZ DE PEDRO Fernando -2 Home 00:24:48.000 00:01:08.000 Diploma
3 752 FAZIO ZALANY Zeno -3 Home 00:25:59.000 00:02:19.000 Diploma
4 561 LOPEZ FERNANDEZ Miquel Angel -4 Home 00:26:12.000 00:02:32.000 Diploma
5 455 SERRA TERMENS David -5 Home 00:26:19.000 00:02:39.000 Diploma
6 1042 IZQUIERDO DURAN Emilio -6 Home 00:26:42.000 00:03:02.000 Diploma
7 949 CRUXENT CORT Jordi -7 Home 00:26:46.000 00:03:06.000 Diploma
8 1178 CASQUERO COSSIO Alejandro -8 Home 00:26:49.000 00:03:09.000 Diploma
9 911 PROS ORTEGA Eduardo -9 Home 00:27:26.000 00:03:46.000 Diploma
10 832 PEREZ SANCHEZ Pedro -10 Home 00:27:37.000 00:03:57.000 Diploma
11 806 SERRA MARQUÈS Joan -11 Home 00:28:02.000 00:04:22.000 Diploma
12 396 PEREZ VALERO Wolfi -12 Home 00:28:03.000 00:04:23.000 Diploma
13 924 PIÑANA ADELL Joan -13 Home 00:28:05.000 00:04:25.000 Diploma
13 637 BARONA COMECHE Alex -13 Home 00:28:05.000 00:04:25.000 Diploma
15 975 GÁLLEGO PEIRÉ Jesús-Andrés -15 Home 00:28:06.000 00:04:26.000 Diploma
15 842 LOPEZ MAZORRIAGA Arnau -15 Home 00:28:06.000 00:04:26.000 Diploma
17 5 PUJADAS ESPAÑOL Jordi -17 Home 00:28:12.000 00:04:32.000 Diploma
18 6 YELA RENESES Héctor -18 Home 00:28:13.000 00:04:33.000 Diploma
19 443 TREMUL PAREDES Miguel -19 Home 00:28:17.000 00:04:37.000 Diploma
20 217 TORRENTE TOMAS Jordi -20 Home 00:28:29.000 00:04:49.000 Diploma
21 901 SEVILLANO LLERGO Antonio -21 Home 00:28:31.000 00:04:51.000 Diploma
22 751 VIVES EGEA Marc -22 Home 00:28:48.000 00:05:08.000 Diploma
23 913 MASIP CASADO Joan Manel -23 Home 00:29:01.000 00:05:21.000 Diploma
24 652 MONTEYS Manel -24 Home 00:29:05.000 00:05:25.000 Diploma
25 1089 SÁNCHEZ RECHE Miguel -25 Home 00:29:08.000 00:05:28.000 Diploma
25 579 URIZ ALBIOL Iñaki -25 Home 00:29:08.000 00:05:28.000 Diploma
25 487 TORREJON GONZALEZ Jordi -25 Home 00:29:08.000 00:05:28.000 Diploma
28 823 LÓPEZ MARÍN Agustí -28 Home 00:29:09.000 00:05:29.000 Diploma
29 489 GALÍ CASTRO Arnau -29 Home 00:29:17.000 00:05:37.000 Diploma
30 507 FIGUERAS NART Ignasi -30 Home 00:29:24.000 00:05:44.000 Diploma
31 481 CARRETERO SAN JOSE Jairo -31 Home 00:29:26.000 00:05:46.000 Diploma
32 643 PÉREZ GARCÍA Andrés -32 Home 00:29:30.000 00:05:50.000 Diploma
33 80 TRAVER POMÉS Armand -33 Home 00:29:32.000 00:05:52.000 Diploma
34 43 GÓMEZ MONTENEGRO Víctor -34 Home 00:29:35.000 00:05:55.000 Diploma
35 600 BALCELLS LLOBET Jaume -35 Home 00:29:43.000 00:06:03.000 Diploma
36 698 BASSAS BUJ Ignasi -36 Home 00:29:56.000 00:06:16.000 Diploma
37 755 FERRER MARQUEZ Jero -37 Home 00:30:00.000 00:06:20.000 Diploma
38 1109 VIÑETA David -38 Home 00:30:04.000 00:06:24.000 Diploma
38 809 TORREJON GONZALEZ David -38 Home 00:30:04.000 00:06:24.000 Diploma
40 905 GUERRA MANRESA Jordi -40 Home 00:30:24.000 00:06:44.000 Diploma
41 209 PERMANYER CARNER Enric -41 Home 00:30:27.000 00:06:47.000 Diploma
42 1164 CORNELLÀ CARRERAS Climent -42 Home 00:30:36.000 00:06:56.000 Diploma
43 541 BISBAL AMAT Jan -43 Home 00:30:37.000 00:06:57.000 Diploma
44 67 GINÉ Guillem -44 Home 00:30:38.000 00:06:58.000 Diploma
45 1158 CRUZ LADERA Valenti -45 Home 00:30:44.000 00:07:04.000 Diploma
45 650 LÓPEZ FERNÁNDEZ Guillem -45 Home 00:30:44.000 00:07:04.000 Diploma
47 648 MASSO GRABULOSA Edu -47 Home 00:30:48.000 00:07:08.000 Diploma
48 450 GARCÍA AYALA César Zuhé -48 Home 00:30:49.000 00:07:09.000 Diploma
49 520 AGUERAS GÓMEZ Oscar -49 Home 00:30:50.000 00:07:10.000 Diploma
50 973 VENTURA CASAS Marc -50 Home 00:30:53.000 00:07:13.000 Diploma
51 64 AMETLLER LURBE Victor -51 Home 00:30:59.000 00:07:19.000 Diploma
52 703 HERNÁNDEZ SÁNCHEZ Jose Luis -52 Home 00:31:00.000 00:07:20.000 Diploma
52 51 VIÑAS SELVA Josep -52 Home 00:31:00.000 00:07:20.000 Diploma
54 912 SANCHEZ DE OCAÑA DORADO Gabriel -54 Home 00:31:03.000 00:07:23.000 Diploma
55 128 GARCIA PASCUET Miquel -55 Home 00:31:05.000 00:07:25.000 Diploma
56 362 ROMANO MORALES Daniel -56 Home 00:31:07.000 00:07:27.000 Diploma
57 535 BARBA LE BRUN Daniel -57 Home 00:31:14.000 00:07:34.000 Diploma
58 584 TRÈMOLS DOMINGO Carles -58 Home 00:31:15.000 00:07:35.000 Diploma
59 1045 ARMADÀS I SABATÉ Cristian -59 Home 00:31:22.000 00:07:42.000 Diploma
60 367 GRÀCIA LANAS Oriol -60 Home 00:31:25.000 00:07:45.000 Diploma
61 1043 RAFOLS MONTIEL Carla -1 Dona 00:31:26.000 00:07:46.000 Diploma
62 501 LORENZO SOTELO Roberto -61 Home 00:31:27.000 00:07:47.000 Diploma
63 96 GARCÍA DE ALCARAZ Javi -62 Home 00:31:28.000 00:07:48.000 Diploma
64 981 TURMO SAINZ Gabriel -63 Home 00:31:29.000 00:07:49.000 Diploma
64 946 HILL Aaron -63 Home 00:31:29.000 00:07:49.000 Diploma
66 836 GARCIA LOPEZ Alberto -65 Home 00:31:31.000 00:07:51.000 Diploma
67 802 HERNÁNDEZ SÁNCHEZ Eduardo -66 Home 00:31:32.000 00:07:52.000 Diploma
68 742 BIEL MARTA Enrique -67 Home 00:31:34.000 00:07:54.000 Diploma
69 728 SERRA GIL Antonio -68 Home 00:31:40.000 00:08:00.000 Diploma
70 872 GUZMAN LEBRATO Carlos -69 Home 00:31:41.000 00:08:01.000 Diploma
70 281 TRUYOLS I COLL Alex -69 Home 00:31:41.000 00:08:01.000 Diploma
72 940 NAVARRA TOMÀS Roger -71 Home 00:31:43.000 00:08:03.000 Diploma
72 182 MARTI CRESPO Jordi -71 Home 00:31:43.000 00:08:03.000 Diploma
72 77 SEGURA BARNADAS Martí -71 Home 00:31:43.000 00:08:03.000 Diploma
75 1165 TORTAJADA OBRADO Raul -74 Home 00:31:46.000 00:08:06.000 Diploma
75 750 LAZARO Lluis -74 Home 00:31:46.000 00:08:06.000 Diploma
77 1174 HOMEDES PRADES Adolf -76 Home 00:31:49.000 00:08:09.000 Diploma
78 1118 MACINA Thomas -77 Home 00:31:50.000 00:08:10.000 Diploma
79 150 TRAVERIA FILLAT Alberto -78 Home 00:31:51.000 00:08:11.000 Diploma
80 369 CARMONA IBORRA Quim -79 Home 00:31:52.000 00:08:12.000 Diploma
81 532 ROSELLÓ OBRADORS Xavi -80 Home 00:31:53.000 00:08:13.000 Diploma
81 147 TRAVERIA ESTANY Albert -80 Home 00:31:53.000 00:08:13.000 Diploma
81 70 GIL SEPÚLVEDA Víctor Alejandro -80 Home 00:31:53.000 00:08:13.000 Diploma
84 304 MASANA GALLEGO Jordi -83 Home 00:31:54.000 00:08:14.000 Diploma
85 33 FERNANDEZ MARTIN Rafael -84 Home 00:31:55.000 00:08:15.000 Diploma
86 421 CARULLA SOLÀ Pol -85 Home 00:32:03.000 00:08:23.000 Diploma
87 384 TORRES JULIÁ Sonsoles -2 Dona 00:32:04.000 00:08:24.000 Diploma
88 1075 LLORENTE BUSQEUTS Javier -86 Home 00:32:06.000 00:08:26.000 Diploma
88 1010 BALOT Lluís -86 Home 00:32:06.000 00:08:26.000 Diploma
90 712 GIBERNAU PONSA Xavier -88 Home 00:32:10.000 00:08:30.000 Diploma
90 46 GARCÍA CANDELARIO Fran -88 Home 00:32:10.000 00:08:30.000 Diploma
92 586 HINTZMANN COLOMINAS Albert -90 Home 00:32:14.000 00:08:34.000 Diploma
93 909 CANCIO TRUJILLO Jose Manuel -91 Home 00:32:16.000 00:08:36.000 Diploma
94 1143 LUQUE Carles -92 Home 00:32:19.000 00:08:39.000 Diploma
95 719 GAMIZ VILLEN David -93 Home 00:32:20.000 00:08:40.000 Diploma
96 664 CUBILLO ALONSO Òscar -94 Home 00:32:30.000 00:08:50.000 Diploma
97 1173 GRANELL Jordi -95 Home 00:32:31.000 00:08:51.000 Diploma
98 1021 BARRERA DE HARO Alex -96 Home 00:32:36.000 00:08:56.000 Diploma
99 699 PLANCHERIA MILIÀ Bernat -97 Home 00:32:40.000 00:09:00.000 Diploma
99 219 PUCHOL CALLMEIER Miquel -97 Home 00:32:40.000 00:09:00.000 Diploma
101 1074 SEGUÉS VINYALS Salva -99 Home 00:32:43.000 00:09:03.000 Diploma
102 1137 RUBAU David -100 Home 00:32:47.000 00:09:07.000 Diploma
102 887 ALOS MELCHOR Ivan -100 Home 00:32:47.000 00:09:07.000 Diploma
104 665 RIBERA TOWNSEND Nicole -3 Dona 00:32:48.000 00:09:08.000 Diploma
105 914 CRISTEL FERRER Alex -102 Home 00:32:49.000 00:09:09.000 Diploma
106 374 CAIRO TOBELLA Marc -103 Home 00:32:50.000 00:09:10.000 Diploma
106 69 BALLESTER TATARET Gabriel -103 Home 00:32:50.000 00:09:10.000 Diploma
108 208 UBALS CARRERAS Jordi -105 Home 00:32:51.000 00:09:11.000 Diploma
109 969 MUÑOZ MARMOL David -106 Home 00:32:52.000 00:09:12.000 Diploma
110 29 DÍEZ DEUSTUA Alejandro -107 Home 00:32:54.000 00:09:14.000 Diploma
111 651 CAMPOY CAMPOS Pol -108 Home 00:32:55.000 00:09:15.000 Diploma
112 22 CLUPÉS MUR David -109 Home 00:32:58.000 00:09:18.000 Diploma
113 859 FERNANDEZ BOSCH Sergi -110 Home 00:33:00.000 00:09:20.000 Diploma
114 68 HERNANDEZ CÀNAVES Marc -111 Home 00:33:02.000 00:09:22.000 Diploma
114 19 MARZO CREMADES Carlos -111 Home 00:33:02.000 00:09:22.000 Diploma
116 967 TERMES ASENSIO Jaume -113 Home 00:33:04.000 00:09:24.000 Diploma
117 865 SALAS LOPEZ Lluis -114 Home 00:33:05.000 00:09:25.000 Diploma
118 735 BERNAL CUBILLO Oscar -115 Home 00:33:08.000 00:09:28.000 Diploma
119 298 VILLANOVA FARRÉ David -116 Home 00:33:09.000 00:09:29.000 Diploma
120 667 VINUESA FERNANDEZ Xavier -117 Home 00:33:10.000 00:09:30.000 Diploma
121 471 MATA CAÑAS Cesc -118 Home 00:33:12.000 00:09:32.000 Diploma
122 323 ALBAGES MIRALLES Alex -119 Home 00:33:14.000 00:09:34.000 Diploma
122 238 RIBAS GUAARDIA Jordi -119 Home 00:33:14.000 00:09:34.000 Diploma
124 1084 ROESCH Pablo -121 Home 00:33:16.000 00:09:36.000 Diploma
124 707 POVES VALENCIA Luis Esteban -121 Home 00:33:16.000 00:09:36.000 Diploma
126 98 ARANDA GIL Àlex -123 Home 00:33:17.000 00:09:37.000 Diploma
127 242 RIBA MONZO Daniel -124 Home 00:33:18.000 00:09:38.000 Diploma
127 8 CASTELLS Àlex -124 Home 00:33:18.000 00:09:38.000 Diploma
129 1098 CORTADELLAS Ignasi -126 Home 00:33:19.000 00:09:39.000 Diploma
129 446 SÁNCHEZ Juan Manuel -126 Home 00:33:19.000 00:09:39.000 Diploma
131 1082 ROSÉS USTARIZ Nacho -128 Home 00:33:20.000 00:09:40.000 Diploma
132 183 JJUMILLA BELLIDO Jordi -129 Home 00:33:21.000 00:09:41.000 Diploma
133 927 GOMEZ PAMIES Enric -130 Home 00:33:22.000 00:09:42.000 Diploma
134 884 PEREZ PELEGRI Daniel -131 Home 00:33:23.000 00:09:43.000 Diploma
134 530 LOPEZ LOBATO Luis -131 Home 00:33:23.000 00:09:43.000 Diploma
136 1072 BELTRÁN BASCÓN Jordi -133 Home 00:33:28.000 00:09:48.000 Diploma
136 740 BURGOS Victor -133 Home 00:33:28.000 00:09:48.000 Diploma
138 306 ROQUET Xavier -135 Home 00:33:33.000 00:09:53.000 Diploma
139 4 MAÑERO VÁZQUEZ Iván -136 Home 00:33:39.000 00:09:59.000 Diploma
140 1121 CASANOVA AGUILAR Angel -137 Home 00:33:40.000 00:10:00.000 Diploma
141 234 ARCAS SARASOLA Josep -138 Home 00:33:45.000 00:10:05.000 Diploma
142 599 GARCIA Donato -139 Home 00:33:50.000 00:10:10.000 Diploma
143 640 GARCÍA COLACIOS Kiko -140 Home 00:33:51.000 00:10:11.000 Diploma
144 505 PÉREZ I JANER Jordi -141 Home 00:33:53.000 00:10:13.000 Diploma
145 709 LINARES PEREZ Joaquin -142 Home 00:33:54.000 00:10:14.000 Diploma
146 1059 HERNANDEZ CIVIT Ruben -143 Home 00:33:58.000 00:10:18.000 Diploma
146 715 PEREZ GARCIA Jose Antonio -143 Home 00:33:58.000 00:10:18.000 Diploma
148 702 GRANELL DÍAZ Jordi -145 Home 00:33:59.000 00:10:19.000 Diploma
149 545 FERRÉ ROMEU Alexandre -146 Home 00:34:00.000 00:10:20.000 Diploma
150 741 MORESO SUBIRATS Gerard -147 Home 00:34:01.000 00:10:21.000 Diploma
150 294 SALAS FENOY Sergi -147 Home 00:34:01.000 00:10:21.000 Diploma
152 109 GALLART ALVAREZ Albert -149 Home 00:34:06.000 00:10:26.000 Diploma
152 101 BALLBE I SANS Jordi -149 Home 00:34:06.000 00:10:26.000 Diploma
154 961 MACIAS CASTELLOTE Ivan -151 Home 00:34:07.000 00:10:27.000 Diploma
154 413 MARTÍNEZ CUADROS Jordi -151 Home 00:34:07.000 00:10:27.000 Diploma
156 971 LORDAN BURGOS Xavi -153 Home 00:34:08.000 00:10:28.000 Diploma
157 393 CENTELLES SOLER Oriol -154 Home 00:34:09.000 00:10:29.000 Diploma
158 282 QUER ETXEBERRIA Idaki Yosu -155 Home 00:34:13.000 00:10:33.000 Diploma
159 284 PALAU SANZ Christian -156 Home 00:34:14.000 00:10:34.000 Diploma
160 620 SERRA FARRÓ Jaume -157 Home 00:34:15.000 00:10:35.000 Diploma
161 1020 CIURANA Jordi -158 Home 00:34:17.000 00:10:37.000 Diploma
161 355 ORTIZ POZO David -158 Home 00:34:17.000 00:10:37.000 Diploma
163 265 YBARRA Sebastian -160 Home 00:34:18.000 00:10:38.000 Diploma
164 1039 FORN VIDAL Txema -161 Home 00:34:19.000 00:10:39.000 Diploma
164 317 MADAULA CANADELL Joan -161 Home 00:34:19.000 00:10:39.000 Diploma
166 890 CARNER ALIVÉS David -163 Home 00:34:21.000 00:10:41.000 Diploma
167 1091 JUANMARTÍ VIVES Marc -164 Home 00:34:22.000 00:10:42.000 Diploma
168 280 TORREDEFLOT I BARRUFET Xavi -165 Home 00:34:23.000 00:10:43.000 Diploma
169 983 GARCIA BOIXÉS Roger -166 Home 00:34:24.000 00:10:44.000 Diploma
170 598 JORBA CAMPOS Ferran -167 Home 00:34:27.000 00:10:47.000 Diploma
170 597 JORBA LLOPIS Enric -167 Home 00:34:27.000 00:10:47.000 Diploma
170 285 CALAF RAMIREZ Xavier -167 Home 00:34:27.000 00:10:47.000 Diploma
173 1175 ROBELLO ALVAREZ DE QUEVEDO Hector -170 Home 00:34:28.000 00:10:48.000 Diploma
174 943 POUS ALO Jordi -171 Home 00:34:36.000 00:10:56.000 Diploma
174 172 TORRES CEBRIAN Abel -171 Home 00:34:36.000 00:10:56.000 Diploma
176 567 DE FRENNE CANALES Jaume -173 Home 00:34:38.000 00:10:58.000 Diploma
177 497 ORTIZ MARTIN Hugo -174 Home 00:34:39.000 00:10:59.000 Diploma
178 694 VELEDA DÍAZ David -175 Home 00:34:41.000 00:11:01.000 Diploma
178 577 GONZÁLEZ DUARTE Gaspar -175 Home 00:34:41.000 00:11:01.000 Diploma
180 130 LLOBET CANTACORPS Mar -4 Dona 00:34:42.000 00:11:02.000 Diploma
181 980 DOMÍNGUEZ LÓPEZ Francisco Javier -177 Home 00:34:43.000 00:11:03.000 Diploma
181 595 LÓPEZ RODRÍGUEZ Àlex -177 Home 00:34:43.000 00:11:03.000 Diploma
181 457 LOPEZ BLASCO Diego -177 Home 00:34:43.000 00:11:03.000 Diploma
181 404 ANDREU BORDAS Joan -177 Home 00:34:43.000 00:11:03.000 Diploma
185 325 LOPEZ TORRES Jesus -181 Home 00:34:44.000 00:11:04.000 Diploma
186 621 GRATACÓS GAYOLÀ Xavi -182 Home 00:34:45.000 00:11:05.000 Diploma
186 123 ÁLVAREZ MORÓN Manu -182 Home 00:34:45.000 00:11:05.000 Diploma
188 622 IRIBARREN RIBAS Eneko -184 Home 00:34:46.000 00:11:06.000 Diploma
189 1076 VERDEJO PÉREZ Pablo -185 Home 00:34:49.000 00:11:09.000 Diploma
190 826 GARRIDO GONZALEZ Iñaki -186 Home 00:34:50.000 00:11:10.000 Diploma
191 871 IZQUIERDO VALLEJO Kike -187 Home 00:34:53.000 00:11:13.000 Diploma
192 710 SANTACREU ROMANOS Helena -5 Dona 00:35:00.000 00:11:20.000 Diploma
193 308 PARERA MARTINELL Jordi -188 Home 00:35:02.000 00:11:22.000 Diploma
194 877 GÓRRIZ ALCARAZ Javier -189 Home 00:35:03.000 00:11:23.000 Diploma
195 1024 ORTEGA MATALLANA Carlos -190 Home 00:35:04.000 00:11:24.000 Diploma
195 381 BONASTRE THIÓ Manuel -190 Home 00:35:04.000 00:11:24.000 Diploma
195 312 BAYÓ Glòria -6 Dona 00:35:04.000 00:11:24.000 Diploma
198 1051 SATORRA MONTALÀ David Pau -192 Home 00:35:10.000 00:11:30.000 Diploma
199 625 CANALS ASIN Xavier -193 Home 00:35:11.000 00:11:31.000 Diploma
200 891 PIÑEIRO ESCUDER Oriol -194 Home 00:35:13.000 00:11:33.000 Diploma
200 1 TIBAU RAGOLTA Ivan -194 Home 00:35:13.000 00:11:33.000 Diploma
202 328 SARDÀ MELIS Juame -196 Home 00:35:17.000 00:11:37.000 Diploma
203 283 LOPEZ CABALLERO Toni -197 Home 00:35:18.000 00:11:38.000 Diploma
204 805 GANAZA RODRIGUEZ Jose Manuel -198 Home 00:35:19.000 00:11:39.000 Diploma
205 1087 JIMENEZ ARGÜELLO Carlos -199 Home 00:35:21.000 00:11:41.000 Diploma
206 904 GRACIA CASTERÀ Oscar -200 Home 00:35:23.000 00:11:43.000 Diploma
206 866 LÓPEZ CHAVEINTE Joan Manuel -200 Home 00:35:23.000 00:11:43.000 Diploma
208 1013 ROIG ARGEMI David -202 Home 00:35:24.000 00:11:44.000 Diploma
209 399 MARTÍNEZ MARTÍNEZ Laura -7 Dona 00:35:25.000 00:11:45.000 Diploma
210 818 MORTE ENRÍQUEZ Ricard -203 Home 00:35:28.000 00:11:48.000 Diploma
211 30 FERNÁNDEZ MANCHA Richard -204 Home 00:35:30.000 00:11:50.000 Diploma
212 1047 VAQUERO MARTINEZ Jose Maria -205 Home 00:35:31.000 00:11:51.000 Diploma
213 490 GONZÁLEZ DUARTE Felipe -206 Home 00:35:34.000 00:11:54.000 Diploma
214 522 SÁNCHEZ CLARIANA Miquel -207 Home 00:35:35.000 00:11:55.000 Diploma
214 249 IRIBARREN Pilar -8 Dona 00:35:35.000 00:11:55.000 Diploma
216 839 SERRA VILADRICH Aleix -208 Home 00:35:37.000 00:11:57.000 Diploma
217 1133 BOSCH PLA Joan -209 Home 00:35:38.000 00:11:58.000 Diploma
218 160 BARDAJI BOFILL Isi -9 Dona 00:35:39.000 00:11:59.000 Diploma
219 132 PRATS Ramón -210 Home 00:35:41.000 00:12:01.000 Diploma
220 539 ALSINA NOLLA Alejandro -211 Home 00:35:42.000 00:12:02.000 Diploma
221 1099 RUBIO PALAU Jordi -212 Home 00:35:43.000 00:12:03.000 Diploma
222 254 RODRIGUEZ BELLIDO Luis -213 Home 00:35:44.000 00:12:04.000 Diploma
223 1190 COSTAJUSSA ASENS Pere -214 Home 00:35:48.000 00:12:08.000 Diploma
223 1038 VALHONDO MÁRQUEZ David -214 Home 00:35:48.000 00:12:08.000 Diploma
225 697 ADALIA BARTOLOME Ramon -216 Home 00:35:49.000 00:12:09.000 Diploma
225 366 DÍAZ LÓPEZ Manel -216 Home 00:35:49.000 00:12:09.000 Diploma
227 1130 BERENGUEL DEL VALLE Sergio -218 Home 00:35:53.000 00:12:13.000 Diploma
227 1019 ARGÜELLO DAVILA Xavier -218 Home 00:35:53.000 00:12:13.000 Diploma
227 472 BOU TORRENT Núria -10 Dona 00:35:53.000 00:12:13.000 Diploma
230 989 GISBERT BRULL Albert -220 Home 00:35:54.000 00:12:14.000 Diploma
230 850 LÓPEZ CHAVEINTE Iñaki -220 Home 00:35:54.000 00:12:14.000 Diploma
230 513 ROMAN I SABORIT Sebastià -220 Home 00:35:54.000 00:12:14.000 Diploma
230 449 GARCIA GONZALEZ Juan Carlos -220 Home 00:35:54.000 00:12:14.000 Diploma
230 252 RASCHER Ralf -220 Home 00:35:54.000 00:12:14.000 Diploma
235 713 CASTRILLO PEREZ Carlos -225 Home 00:35:55.000 00:12:15.000 Diploma
236 301 RIVILLA LÓPEZ Carlos -226 Home 00:35:56.000 00:12:16.000 Diploma
237 302 LLAMAS LUNA José Manuel -227 Home 00:35:57.000 00:12:17.000 Diploma
237 99 RUBIO David -227 Home 00:35:57.000 00:12:17.000 Diploma
239 506 SÁNCHEZ SEBASTIÁN Ana -11 Dona 00:35:59.000 00:12:19.000 Diploma
239 438 RIPOL MAS Jose Maria -229 Home 00:35:59.000 00:12:19.000 Diploma
241 672 MARTINEZ SEVERO David -230 Home 00:36:00.000 00:12:20.000 Diploma
242 451 DÍEZ BOFILL Manel -231 Home 00:36:01.000 00:12:21.000 Diploma
243 939 ARMADA CASALS Ramon -232 Home 00:36:02.000 00:12:22.000 Diploma
244 1146 SALES Jesus -233 Home 00:36:03.000 00:12:23.000 Diploma
245 11 ALIBÉS RIERA Arcadi -234 Home 00:36:04.000 00:12:24.000 Diploma
246 900 PUPPO Roberto -235 Home 00:36:08.000 00:12:28.000 Diploma
247 734 SERRA POU Francisco Javier -236 Home 00:36:10.000 00:12:30.000 Diploma
248 947 CRUMP Glen -237 Home 00:36:12.000 00:12:32.000 Diploma
249 1145 VENTURELLI Enmanuela -12 Dona 00:36:13.000 00:12:33.000 Diploma
249 1136 SERRAHIMA Oriol -238 Home 00:36:13.000 00:12:33.000 Diploma
249 954 ARMADÀS SABATÉ Àlex -238 Home 00:36:13.000 00:12:33.000 Diploma
252 581 VALLEJO MARTINEZ Jordi -240 Home 00:36:16.000 00:12:36.000 Diploma
253 479 GUZMAN ALEJO Jose Antonio -241 Home 00:36:17.000 00:12:37.000 Diploma
253 296 CAIRE MIRAVET Josep Mª -241 Home 00:36:17.000 00:12:37.000 Diploma
255 623 CUEVAS ESTEBAN Jorge -243 Home 00:36:18.000 00:12:38.000 Diploma
255 563 ALVAREZ ZAMORA Jorge Emilio -243 Home 00:36:18.000 00:12:38.000 Diploma
257 376 PAHISA Pere -245 Home 00:36:20.000 00:12:40.000 Diploma
258 624 BEAMUD BOIX Toni -246 Home 00:36:21.000 00:12:41.000 Diploma
259 203 HIDALGO CORRAL Gemma -13 Dona 00:36:22.000 00:12:42.000 Diploma
260 310 MORTE ENRIQUEZ Xavier -247 Home 00:36:23.000 00:12:43.000 Diploma
260 223 BARALDÉS PUIG Pep -247 Home 00:36:23.000 00:12:43.000 Diploma
262 315 ROCA PARÉ Joan -249 Home 00:36:24.000 00:12:44.000 Diploma
263 342 CASTELLS SALVAT Joan -250 Home 00:36:26.000 00:12:46.000 Diploma
263 108 PALACIOS NAVAL Alfonso -250 Home 00:36:26.000 00:12:46.000 Diploma
265 391 NAVARRO RUBIO Alvaro -252 Home 00:36:27.000 00:12:47.000 Diploma
266 1103 GOMEZ MALLOL Sergi -253 Home 00:36:29.000 00:12:49.000 Diploma
266 716 PURULL DURAN Marc -253 Home 00:36:29.000 00:12:49.000 Diploma
268 340 HERNÁNDEZ RANZANI Sergi -255 Home 00:36:31.000 00:12:51.000 Diploma
269 922 PRAT CAMPS Jordi -256 Home 00:36:32.000 00:12:52.000 Diploma
270 409 SERRET Josep -257 Home 00:36:33.000 00:12:53.000 Diploma
270 372 GOMEZ PARDOS Roberto -257 Home 00:36:33.000 00:12:53.000 Diploma
272 395 XIRINACHS REDONDO Nuria -14 Dona 00:36:34.000 00:12:54.000 Diploma
273 593 JULIÀ FITER Oscar -259 Home 00:36:35.000 00:12:55.000 Diploma
274 1124 CASTILLA BAS Rafael -260 Home 00:36:36.000 00:12:56.000 Diploma
275 632 VIDAL DE CIURANA Joan -261 Home 00:36:37.000 00:12:57.000 Diploma
275 542 BISBAL TUDELA Josep Lluís -261 Home 00:36:37.000 00:12:57.000 Diploma
275 345 ALTABÁS CÁRDENES Belén -15 Dona 00:36:37.000 00:12:57.000 Diploma
275 58 CRUZ MARTÍNEZ Ignasi -261 Home 00:36:37.000 00:12:57.000 Diploma
279 346 LEGUA Antoni -264 Home 00:36:39.000 00:12:59.000 Diploma
279 176 MARTÍNEZ HUESO Albert -264 Home 00:36:39.000 00:12:59.000 Diploma
281 970 TERRER NUÑEZ Josep Mª -266 Home 00:36:40.000 00:13:00.000 Diploma
282 696 PROS VILÀ Jordi -267 Home 00:36:41.000 00:13:01.000 Diploma
283 955 GARRIGA MORENO Raimon -268 Home 00:36:42.000 00:13:02.000 Diploma
283 517 NOVELLA Xavi -268 Home 00:36:42.000 00:13:02.000 Diploma
283 394 CAPELLAS PI Joaquim -268 Home 00:36:42.000 00:13:02.000 Diploma
286 154 VIDAL BONET Xavier -271 Home 00:36:44.000 00:13:04.000 Diploma
287 1055 ROJAS ALMAGRO David -272 Home 00:36:45.000 00:13:05.000 Diploma
287 886 VIDAL Jan -272 Home 00:36:45.000 00:13:05.000 Diploma
287 685 RUBIÑO PEÑA Roberto -272 Home 00:36:45.000 00:13:05.000 Diploma
290 14 CARPI POLA Natàlia -16 Dona 00:36:46.000 00:13:06.000 Diploma
291 12 POLO CASTRO Eduard -275 Home 00:36:47.000 00:13:07.000 Diploma
292 352 LÓPEZ Oscar -276 Home 00:36:50.000 00:13:10.000 Diploma
293 440 GARRIGA FLAQUER Lluís -277 Home 00:36:51.000 00:13:11.000 Diploma
294 164 BASART MEDARDE David -278 Home 00:36:53.000 00:13:13.000 Diploma
294 161 BARDAJI BOFILL Borja -278 Home 00:36:53.000 00:13:13.000 Diploma
296 689 VIÑES Oriol -280 Home 00:36:54.000 00:13:14.000 Diploma
296 606 PEÑALVER Enrique -280 Home 00:36:54.000 00:13:14.000 Diploma
298 1139 ARBUNIER Guillermo -282 Home 00:36:55.000 00:13:15.000 Diploma
298 801 MOHEDANO ANGEL Ana -17 Dona 00:36:55.000 00:13:15.000 Diploma
298 646 CIURANA GALLEGO Jordi -282 Home 00:36:55.000 00:13:15.000 Diploma
298 546 PASTOR I ROIG Pere J. -282 Home 00:36:55.000 00:13:15.000 Diploma
298 167 NICOLAU MARTÍ Carles -282 Home 00:36:55.000 00:13:15.000 Diploma
303 1008 PALAU Enric -286 Home 00:36:56.000 00:13:16.000 Diploma
303 845 GOMEZ PLAYÀ Marc -286 Home 00:36:56.000 00:13:16.000 Diploma
305 1044 MONTIEL ACOSTA Mª Carmen -18 Dona 00:36:57.000 00:13:17.000 Diploma
305 736 MARTI FERRER Juan -288 Home 00:36:57.000 00:13:17.000 Diploma
305 319 VILALTA BALAGUER Lluis -288 Home 00:36:57.000 00:13:17.000 Diploma
305 213 FERNANDEZ Juan Jose -288 Home 00:36:57.000 00:13:17.000 Diploma
305 55 TUDELA MARTÍNEZ Daniel -288 Home 00:36:57.000 00:13:17.000 Diploma
305 18 ACERO COBO Noelia -18 Dona 00:36:57.000 00:13:17.000 Diploma
311 61 FERNANDES REINOSO Josep Enric -292 Home 00:36:58.000 00:13:18.000 Diploma
312 1004 HIDALGO FERNANDEZ Jose Maria -293 Home 00:36:59.000 00:13:19.000 Diploma
313 895 FERRERA HERMOSO Beatriz -20 Dona 00:37:00.000 00:13:20.000 Diploma
313 846 HOMS PUIGORIOL Angels -20 Dona 00:37:00.000 00:13:20.000 Diploma
313 31 AMELA DUPRE Nestor -294 Home 00:37:00.000 00:13:20.000 Diploma
316 1095 FDEZ FDEZ Pablo -295 Home 00:37:01.000 00:13:21.000 Diploma
316 425 TAPIA FARRERAS Armand -295 Home 00:37:01.000 00:13:21.000 Diploma
318 848 PARRA I MINCHAN Raül -297 Home 00:37:02.000 00:13:22.000 Diploma
319 653 ALVAREZ PÉREZ Jordi -298 Home 00:37:03.000 00:13:23.000 Diploma
320 371 PEÑUELA GIL Eva -22 Dona 00:37:08.000 00:13:28.000 Diploma
321 1065 SCHERER Danijel -299 Home 00:37:09.000 00:13:29.000 Diploma
322 247 VIÑAS ROSILLO Alex -300 Home 00:37:10.000 00:13:30.000 Diploma
323 364 VILÀ MATA Anna -23 Dona 00:37:11.000 00:13:31.000 Diploma
324 119 ESTEBAN I MILÀ Miquel -301 Home 00:37:15.000 00:13:35.000 Diploma
325 1022 LLOVERAS MONSALVE Joan -302 Home 00:37:17.000 00:13:37.000 Diploma
326 1168 RODÓ Marc -303 Home 00:37:18.000 00:13:38.000 Diploma
326 477 SUNYER PUJOL Jordi -303 Home 00:37:18.000 00:13:38.000 Diploma
328 32 RAFOLS MONTIEL Mireia -24 Dona 00:37:20.000 00:13:40.000 Diploma
329 892 ESCUDÉ COMERMA Quico -305 Home 00:37:22.000 00:13:42.000 Diploma
329 307 TORRENTS PONCE Muntsa -25 Dona 00:37:22.000 00:13:42.000 Diploma
329 113 DOLCET GASCH Marc -305 Home 00:37:22.000 00:13:42.000 Diploma
329 112 GUARDIA RAVENTÓS Albert -305 Home 00:37:22.000 00:13:42.000 Diploma
333 66 ESPEJO MARIMON Jordi -308 Home 00:37:29.000 00:13:49.000 Diploma
334 1177 PERISE Quim -309 Home 00:37:30.000 00:13:50.000 Diploma
335 416 TERUEL CARRILLO Ferran -310 Home 00:37:31.000 00:13:51.000 Diploma
335 190 ALVAREZ BADIELLA Javier -310 Home 00:37:31.000 00:13:51.000 Diploma
337 700 ORTEGA LAGO Jesús -312 Home 00:37:32.000 00:13:52.000 Diploma
338 1088 RADFORD Jorge -313 Home 00:37:33.000 00:13:53.000 Diploma
338 408 CARMONA FERNANDEZ Raul -313 Home 00:37:33.000 00:13:53.000 Diploma
338 274 RODRIGUEZ Macarena -26 Dona 00:37:33.000 00:13:53.000 Diploma
341 185 BARDAJÍ BOFILL Sergi -315 Home 00:37:34.000 00:13:54.000 Diploma
342 221 SANTANA ARJONA Angel -316 Home 00:37:35.000 00:13:55.000 Diploma
343 560 FENÉS ESCOLÀ Valeri -317 Home 00:37:36.000 00:13:56.000 Diploma
343 480 PASCUAL PINSACH Miquel -317 Home 00:37:36.000 00:13:56.000 Diploma
345 97 PÉREZ David -319 Home 00:37:37.000 00:13:57.000 Diploma
346 212 RODRIGUEZ FOLGAROLAS Benjami -320 Home 00:37:38.000 00:13:58.000 Diploma
346 141 JOFRA Jordi -320 Home 00:37:38.000 00:13:58.000 Diploma
348 828 SCRIMIERI Stefano -322 Home 00:37:42.000 00:14:02.000 Diploma
348 255 IRANZO Ricardo -322 Home 00:37:42.000 00:14:02.000 Diploma
348 168 LIMA POUCHOU Juan -322 Home 00:37:42.000 00:14:02.000 Diploma
351 695 BEL AGUADO Miquel Jordi -325 Home 00:37:45.000 00:14:05.000 Diploma
352 424 MANUBENS CUNILLERA Silvia -27 Dona 00:37:47.000 00:14:07.000 Diploma
352 87 PÉREZ MARIN Jose Maria -326 Home 00:37:47.000 00:14:07.000 Diploma
354 90 DURANY FORNS David -327 Home 00:37:48.000 00:14:08.000 Diploma
355 60 MONTANER I VILADRICH Joan -328 Home 00:37:50.000 00:14:10.000 Diploma
356 1148 COS Juan Carlos -329 Home 00:37:52.000 00:14:12.000 Diploma
357 329 ANDREU MARTÍNEZ Lorena -28 Dona 00:37:53.000 00:14:13.000 Diploma
358 330 CONESA SILVESTRE Christian -330 Home 00:37:54.000 00:14:14.000 Diploma
359 835 CALVET GUARDIA Xavier -331 Home 00:37:55.000 00:14:15.000 Diploma
359 500 RODRÍGUEZ PORTOLÉS Joan -331 Home 00:37:55.000 00:14:15.000 Diploma
361 732 QUILEZ GAMEZ Pol -333 Home 00:37:56.000 00:14:16.000 Diploma
362 1040 HINOJOSA VIDAL Rafa -334 Home 00:37:58.000 00:14:18.000 Diploma
363 899 BERTRAN RICART Ramon -335 Home 00:37:59.000 00:14:19.000 Diploma
364 888 OHNGEMACH Joan -336 Home 00:38:01.000 00:14:21.000 Diploma
364 268 CASTRO ARTERO Eduard -336 Home 00:38:01.000 00:14:21.000 Diploma
366 906 CASAS CÁNCER Elisenda -29 Dona 00:38:02.000 00:14:22.000 Diploma
367 1188 PLA ALCARAZ Jordi -338 Home 00:38:05.000 00:14:25.000 Diploma
367 984 RIGAU TUSELL Ignacio -338 Home 00:38:05.000 00:14:25.000 Diploma
367 630 REGUEIRA ZAMORA David -338 Home 00:38:05.000 00:14:25.000 Diploma
370 642 NAVARRO PAZOS Laia -30 Dona 00:38:06.000 00:14:26.000 Diploma
370 232 FALCÉS FERRER Josep -341 Home 00:38:06.000 00:14:26.000 Diploma
370 231 ROIG MANLLEU Carles -341 Home 00:38:06.000 00:14:26.000 Diploma
373 942 AMELADUPRE Oleguer -343 Home 00:38:07.000 00:14:27.000 Diploma
374 510 MARTÍN ALEMANY Jordi -344 Home 00:38:08.000 00:14:28.000 Diploma
375 1026 SALGADO CRESPO Germán -345 Home 00:38:09.000 00:14:29.000 Diploma
376 988 LOBBAN Alan -346 Home 00:38:10.000 00:14:30.000 Diploma
377 380 CASABLANCAS RAPOSO Albert -347 Home 00:38:11.000 00:14:31.000 Diploma
377 244 BOMBARDÓ CODINA Jaume -347 Home 00:38:11.000 00:14:31.000 Diploma
379 1194 BARTOLOME PEREZ Victor -349 Home 00:38:12.000 00:14:32.000 Diploma
379 42 BABOT ALTISEN Nico -349 Home 00:38:12.000 00:14:32.000 Diploma
381 117 MARTÍNEZ PONS Josep Lluís -351 Home 00:38:13.000 00:14:33.000 Diploma
382 999 VILÀ I CUSCÓ Marc -352 Home 00:38:14.000 00:14:34.000 Diploma
382 503 VILARRÚBIA TÀPIA Josep M -352 Home 00:38:14.000 00:14:34.000 Diploma
384 838 TRESSERRAS Albert -354 Home 00:38:15.000 00:14:35.000 Diploma
384 142 CORTES GARCIA-CORTINA Maria -31 Dona 00:38:15.000 00:14:35.000 Diploma
386 57 TINOCO BLANCO Ivan -355 Home 00:38:16.000 00:14:36.000 Diploma
387 889 PÉREZ SÁNCHEZ Francisco -356 Home 00:38:19.000 00:14:39.000 Diploma
388 935 PROS VILA Josep -357 Home 00:38:21.000 00:14:41.000 Diploma
389 512 FALGUERAS SUREDA Xavier -358 Home 00:38:25.000 00:14:45.000 Diploma
389 17 MIRABET LORENZO Juan Antonio -358 Home 00:38:25.000 00:14:45.000 Diploma
391 607 CARDONA PUJADAS Roger -360 Home 00:38:26.000 00:14:46.000 Diploma
391 464 HUESCA RAMIREZ Dario -360 Home 00:38:26.000 00:14:46.000 Diploma
393 601 BALCELLS PIFARRÉ Pau -362 Home 00:38:28.000 00:14:48.000 Diploma
393 474 FERNÁNDEZ PÉREZ Francisco Javier -362 Home 00:38:28.000 00:14:48.000 Diploma
395 157 VIDAL PIDEVALL Joan -364 Home 00:38:29.000 00:14:49.000 Diploma
396 701 BUETAS NOGUEIRA Enric -365 Home 00:38:30.000 00:14:50.000 Diploma
396 235 TOMAS NICOLAS Laura -32 Dona 00:38:30.000 00:14:50.000 Diploma
398 726 VAZQUEZ MORENO Sara -33 Dona 00:38:31.000 00:14:51.000 Diploma
398 140 FURNELL Sally -33 Dona 00:38:31.000 00:14:51.000 Diploma
400 1134 CANETE SISQUELLA Aleix -366 Home 00:38:32.000 00:14:52.000 Diploma
401 678 FUERTES JAIME Vicente -367 Home 00:38:35.000 00:14:55.000 Diploma
401 628 VILA BARROSO Diego -367 Home 00:38:35.000 00:14:55.000 Diploma
401 442 PARRAMON Imma -35 Dona 00:38:35.000 00:14:55.000 Diploma
404 1028 DELGADO PLAZA Maria Jose -36 Dona 00:38:36.000 00:14:56.000 Diploma
404 1027 RIBELL GIRBAU Antonio -369 Home 00:38:36.000 00:14:56.000 Diploma
406 1046 GARCIA GOROSTIETA Sergio -370 Home 00:38:39.000 00:14:59.000 Diploma
406 1032 ASENSIO Marino -370 Home 00:38:39.000 00:14:59.000 Diploma
408 568 GUIX Jordi -372 Home 00:38:40.000 00:15:00.000 Diploma
409 1135 CASTELLA Mireia -37 Dona 00:38:41.000 00:15:01.000 Diploma
409 737 MARCET TRULLAS Joan -373 Home 00:38:41.000 00:15:01.000 Diploma
409 186 BARDAJI GARAY Miquel -373 Home 00:38:41.000 00:15:01.000 Diploma
412 220 GIBERT LOPEZ Susanna -38 Dona 00:38:42.000 00:15:02.000 Diploma
412 85 PEREZ MARIN Daniel -375 Home 00:38:42.000 00:15:02.000 Diploma
412 83 SANCHEZ PEREZ Mari Trini -38 Dona 00:38:42.000 00:15:02.000 Diploma
415 944 PEY I LLANES Núria -40 Dona 00:38:43.000 00:15:03.000 Diploma
416 428 ANDRES COLL Oriol -376 Home 00:38:44.000 00:15:04.000 Diploma
417 76 MARTÍN GIRÁLDEZ Pedro -377 Home 00:38:45.000 00:15:05.000 Diploma
418 960 LOPEZ MARTINEZ Victor -378 Home 00:38:49.000 00:15:09.000 Diploma
419 923 CATARINEU BARENYS Miquel -379 Home 00:38:51.000 00:15:11.000 Diploma
420 910 PELLICER CALATRAVA Moisès -380 Home 00:38:52.000 00:15:12.000 Diploma
421 523 XICOLA MARTÍNEZ Eva -41 Dona 00:38:53.000 00:15:13.000 Diploma
422 93 CAPELLA Felix -381 Home 00:38:54.000 00:15:14.000 Diploma
423 749 ARENAS MOLINA Jorge -382 Home 00:38:55.000 00:15:15.000 Diploma
423 493 OLESTI AMBRÒS Enric -382 Home 00:38:55.000 00:15:15.000 Diploma
425 1090 DOÑATE SALA Sergi -384 Home 00:38:57.000 00:15:17.000 Diploma
426 122 GALAN SANTACANA Josep Lluis -385 Home 00:38:59.000 00:15:19.000 Diploma
427 295 MILLNER Benjamin -386 Home 00:39:00.000 00:15:20.000 Diploma
428 468 MARIN TAURE Carles -387 Home 00:39:02.000 00:15:22.000 Diploma
429 1112 CASAJUANA I MESTRE Pau -388 Home 00:39:05.000 00:15:25.000 Diploma
429 224 LLAUGER Frederic -388 Home 00:39:05.000 00:15:25.000 Diploma
431 1187 ELJARRAT Alberto -390 Home 00:39:09.000 00:15:29.000 Diploma
431 634 DOMINGO CASANELLAS Davjd -390 Home 00:39:09.000 00:15:29.000 Diploma
431 633 ROBLES ALEGRE Isabel -42 Dona 00:39:09.000 00:15:29.000 Diploma
434 589 CANYES Jesus -392 Home 00:39:10.000 00:15:30.000 Diploma
435 1162 SERRA TICÓ Francesc -393 Home 00:39:11.000 00:15:31.000 Diploma
435 902 KUCHARSKI TEOTINO Jorge -393 Home 00:39:11.000 00:15:31.000 Diploma
437 834 GUIMERÀ GALIANA Oscar -395 Home 00:39:12.000 00:15:32.000 Diploma
437 629 SARTORIO TEIXIDÓ Gerard -395 Home 00:39:12.000 00:15:32.000 Diploma
437 200 RIBA FARRÉS Fèlix -395 Home 00:39:12.000 00:15:32.000 Diploma
440 460 IGUAL SÁNCHEZ Sònia -43 Dona 00:39:13.000 00:15:33.000 Diploma
441 808 CARBÓ SERRA Albert -398 Home 00:39:14.000 00:15:34.000 Diploma
441 807 ESCAMILLA BELIZÓN Nuria -44 Dona 00:39:14.000 00:15:34.000 Diploma
441 627 SANCHO BEROY Daniel -398 Home 00:39:14.000 00:15:34.000 Diploma
441 82 BARNADAS ARANDA Laura -44 Dona 00:39:14.000 00:15:34.000 Diploma
445 313 CASAS Glòria -46 Dona 00:39:15.000 00:15:35.000 Diploma
445 293 SANMARTÍ Albert -400 Home 00:39:15.000 00:15:35.000 Diploma
447 655 DE MENDOZA Javier -401 Home 00:39:16.000 00:15:36.000 Diploma
448 475 FIGUERES NÚÑEZ Albert -402 Home 00:39:17.000 00:15:37.000 Diploma
449 1149 CARBONS Joan -403 Home 00:39:19.000 00:15:39.000 Diploma
449 1102 MUIÑO LEMA Lorena -47 Dona 00:39:19.000 00:15:39.000 Diploma
451 1170 MORENO ELIAS Xavier -404 Home 00:39:20.000 00:15:40.000 Diploma
452 271 CRUSAFON Marta -48 Dona 00:39:21.000 00:15:41.000 Diploma
453 227 MARTÍNEZ CAPDEVILA Nacho -405 Home 00:39:24.000 00:15:44.000 Diploma
454 427 VÉLEZ TOLOSA Núria -49 Dona 00:39:27.000 00:15:47.000 Diploma
454 191 VICEDO MIRAL Enric -406 Home 00:39:27.000 00:15:47.000 Diploma
456 1140 BLAZQUEZ Eduard -407 Home 00:39:28.000 00:15:48.000 Diploma
456 804 BARÓ LÓPEZ Jaume -407 Home 00:39:28.000 00:15:48.000 Diploma
458 591 MUÑOZ FERNÁNDEZ Ismael -409 Home 00:39:30.000 00:15:50.000 Diploma
459 611 VILÉS GABALDÓN Blondi -50 Dona 00:39:31.000 00:15:51.000 Diploma
460 365 ALBEROLA MARTIN Daniel -410 Home 00:39:32.000 00:15:52.000 Diploma
461 1180 CABALLERO TOLEDO Pedro -411 Home 00:39:33.000 00:15:53.000 Diploma
462 1125 CLEMENTE SALAS Josep Maria -412 Home 00:39:35.000 00:15:55.000 Diploma
462 654 GÓMEZ MAS Enric -412 Home 00:39:35.000 00:15:55.000 Diploma
464 452 FUERTES FELIU Joaquim -414 Home 00:39:36.000 00:15:56.000 Diploma
464 233 DE LA HOZ GUIRAO Josep Miquel -414 Home 00:39:36.000 00:15:56.000 Diploma
466 527 PONGILUPPI Jordi -416 Home 00:39:37.000 00:15:57.000 Diploma
466 331 PONGILUPPI GOMILA Raimon -416 Home 00:39:37.000 00:15:57.000 Diploma
466 180 VALLVÉ Eduard -416 Home 00:39:37.000 00:15:57.000 Diploma
469 854 SEGURA David -419 Home 00:39:38.000 00:15:58.000 Diploma
469 429 PASCUAL DE LA VIUDA Ricardo -419 Home 00:39:38.000 00:15:58.000 Diploma
471 853 PONS LLOVERAS Elsa -51 Dona 00:39:39.000 00:15:59.000 Diploma
471 495 CORDOBA ESCARDO Antonio -421 Home 00:39:39.000 00:15:59.000 Diploma
473 1048 MORENO FUENTES Ramon -422 Home 00:39:40.000 00:16:00.000 Diploma
474 496 PÉREZ GALLEGO Javier -423 Home 00:39:41.000 00:16:01.000 Diploma
475 356 CARMONA ARMENGOU Fernando -424 Home 00:39:42.000 00:16:02.000 Diploma
476 417 ALBA VENTURA Vanessa -52 Dona 00:39:46.000 00:16:06.000 Diploma
477 638 MORA GONZALEZ Joan -425 Home 00:39:47.000 00:16:07.000 Diploma
477 508 ALSINA JIMENEZ Joan -425 Home 00:39:47.000 00:16:07.000 Diploma
479 518 RODRÍGUEZ TORREJÓN Sandra -53 Dona 00:39:48.000 00:16:08.000 Diploma
479 453 TOMAS ALVEAR Maribel -53 Dona 00:39:48.000 00:16:08.000 Diploma
481 968 CARBONELL BARNIOL Maria -55 Dona 00:39:49.000 00:16:09.000 Diploma
482 1079 VIZCAYA RAMOS Carlos -427 Home 00:39:50.000 00:16:10.000 Diploma
482 705 MARTINEZ REVERTE Victor -427 Home 00:39:50.000 00:16:10.000 Diploma
484 907 ROSÉS SALA Sergi -429 Home 00:39:51.000 00:16:11.000 Diploma
484 536 GIRBAU PEDRAGOSA Josep -429 Home 00:39:51.000 00:16:11.000 Diploma
484 230 CAMPOS OLMO Eva -56 Dona 00:39:51.000 00:16:11.000 Diploma
487 1023 OHNGEMACH Guille -431 Home 00:39:52.000 00:16:12.000 Diploma
487 412 GARCIA CARRO Lluís -431 Home 00:39:52.000 00:16:12.000 Diploma
489 982 GINE CARRILLO Sergi -433 Home 00:39:53.000 00:16:13.000 Diploma
489 267 CANTÓS LÓPEZ Neus -57 Dona 00:39:53.000 00:16:13.000 Diploma
491 248 BORONAT GARCÍA Patricia -58 Dona 00:39:54.000 00:16:14.000 Diploma
491 89 GIMÉNEZ Carles -434 Home 00:39:54.000 00:16:14.000 Diploma
493 1181 O HANNAIDH I MAC AOIDH Iain -435 Home 00:39:56.000 00:16:16.000 Diploma
493 613 GRIFOLL Joan -435 Home 00:39:56.000 00:16:16.000 Diploma
495 273 RASTRILLA ANTON Victor -437 Home 00:39:58.000 00:16:18.000 Diploma
496 406 MARTINEZ AGUILAR Jordi -438 Home 00:40:01.000 00:16:21.000 Diploma
497 666 DARO Angel -439 Home 00:40:03.000 00:16:23.000 Diploma
498 1050 SIERRA GONZALEZ David -440 Home 00:40:04.000 00:16:24.000 Diploma
498 816 HERNÁNDEZ SÁNCHEZ José Vicente -440 Home 00:40:04.000 00:16:24.000 Diploma
498 359 CARMONA POU Juan Miguel -440 Home 00:40:04.000 00:16:24.000 Diploma
501 675 OLTRA ARIMON David -443 Home 00:40:05.000 00:16:25.000 Diploma
501 316 VERDAGUER COT Marta -59 Dona 00:40:05.000 00:16:25.000 Diploma
503 414 HERRER Carlos -444 Home 00:40:07.000 00:16:27.000 Diploma
503 116 PARDO ELIAS Hector -444 Home 00:40:07.000 00:16:27.000 Diploma
505 1119 RAFOLS CAMPAN Xavier -446 Home 00:40:08.000 00:16:28.000 Diploma
505 1041 BISBAL CARNER Marti -446 Home 00:40:08.000 00:16:28.000 Diploma
505 179 CORT CIURANA Marta -60 Dona 00:40:08.000 00:16:28.000 Diploma
508 554 POLO Elisabet -61 Dona 00:40:10.000 00:16:30.000 Diploma
509 1159 MARTI BARBERÀ Serafi -448 Home 00:40:13.000 00:16:33.000 Diploma
510 344 JIMÉNEZ JOVÉ Nuria -62 Dona 00:40:14.000 00:16:34.000 Diploma
511 1030 PADIERNA DOMÍNGUEZ Ivana -63 Dona 00:40:18.000 00:16:38.000 Diploma
511 410 INGLADA GIMÉNEZ David -449 Home 00:40:18.000 00:16:38.000 Diploma
511 337 SIMÓ BAS Pablo -449 Home 00:40:18.000 00:16:38.000 Diploma
514 373 ESCALANTE ROLDAN Gloria -64 Dona 00:40:19.000 00:16:39.000 Diploma
515 957 MUÑOZ HERNANDEZ Gines -451 Home 00:40:21.000 00:16:41.000 Diploma
516 958 ARIAS LOPEZ Ana -65 Dona 00:40:23.000 00:16:43.000 Diploma
517 644 PORTI GARCIA Carmelo -452 Home 00:40:24.000 00:16:44.000 Diploma
518 158 COTS VEGA Xavier -453 Home 00:40:25.000 00:16:45.000 Diploma
519 573 JAUSET BERROCAL Jordi Angel -454 Home 00:40:26.000 00:16:46.000 Diploma
520 1097 BUISÁN ADMETLLA Ramon -455 Home 00:40:27.000 00:16:47.000 Diploma
521 202 HIDALGO CORRAL Alma -66 Dona 00:40:30.000 00:16:50.000 Diploma
522 882 CEREZO REYES Clemente -456 Home 00:40:32.000 00:16:52.000 Diploma
523 211 FRANQUESA SOLER Jordi -457 Home 00:40:33.000 00:16:53.000 Diploma
524 28 BRACEROS Javier -458 Home 00:40:35.000 00:16:55.000 Diploma
525 138 SOROLLA REDRADO Ignasi -459 Home 00:40:36.000 00:16:56.000 Diploma
526 855 BAIZE Florence -67 Dona 00:40:40.000 00:17:00.000 Diploma
526 562 GARCIA-CASCON VELA Xavier -460 Home 00:40:40.000 00:17:00.000 Diploma
526 351 LÓPEZ LLANAS Francesc -460 Home 00:40:40.000 00:17:00.000 Diploma
526 24 GARCIA CASCON PORTELLA Tat -67 Dona 00:40:40.000 00:17:00.000 Diploma
530 876 RIVERO MONSÓ Xavier -462 Home 00:40:41.000 00:17:01.000 Diploma
530 856 DAUSSÀ Héctor -462 Home 00:40:41.000 00:17:01.000 Diploma
530 571 LAGUNA GIMÉNEZ Jose -462 Home 00:40:41.000 00:17:01.000 Diploma
533 569 MAIMOUNI PALLEJA Samir -465 Home 00:40:42.000 00:17:02.000 Diploma
534 549 MOLINA GARRIDO Oscar -466 Home 00:40:43.000 00:17:03.000 Diploma
534 377 LUCAS BABIANO Laura -69 Dona 00:40:43.000 00:17:03.000 Diploma
536 649 ADRIAN FORNÉS Koldo -467 Home 00:40:44.000 00:17:04.000 Diploma
536 197 GARCIA DURAN Maria -70 Dona 00:40:44.000 00:17:04.000 Diploma
538 403 BARRIL ANDRÉS Oscar -468 Home 00:40:46.000 00:17:06.000 Diploma
539 1036 PEDRA LARIO Albert -469 Home 00:40:48.000 00:17:08.000 Diploma
539 992 MARTÍNEZ PLA Pau -469 Home 00:40:48.000 00:17:08.000 Diploma
541 1128 CHÁVEZ QUISPE Luis Enrique -471 Home 00:40:49.000 00:17:09.000 Diploma
541 1069 ESTANY I RICART Jaume -471 Home 00:40:49.000 00:17:09.000 Diploma
543 852 EDWARDS Nicholas -473 Home 00:40:50.000 00:17:10.000 Diploma
544 86 ANDEL MARTIN Oscar -474 Home 00:40:51.000 00:17:11.000 Diploma
545 436 GÜELL CALVO Alexandre -475 Home 00:40:54.000 00:17:14.000 Diploma
546 830 NÚÑEZ VICENTE Cristian -476 Home 00:40:55.000 00:17:15.000 Diploma
547 951 NÚÑEZ VICENTE Jonatan -477 Home 00:40:56.000 00:17:16.000 Diploma
547 184 DURAN AYZA Tomàs-Josep -477 Home 00:40:56.000 00:17:16.000 Diploma
549 941 ROMERA CARBELO Angel -479 Home 00:40:57.000 00:17:17.000 Diploma
550 485 SOLANAS RODRIGO Francesc -480 Home 00:40:58.000 00:17:18.000 Diploma
551 898 GUTIERREZ QUINTANA Toni -481 Home 00:40:59.000 00:17:19.000 Diploma
551 896 MARTÍ RALLO Jordi -481 Home 00:40:59.000 00:17:19.000 Diploma
553 1192 BONVEHÍ PRATS Ramon -483 Home 00:41:01.000 00:17:21.000 Diploma
554 1067 MURIANA ESPADA Teresa -71 Dona 00:41:02.000 00:17:22.000 Diploma
554 1049 LOPEZ LOPEZ Yolanda -71 Dona 00:41:02.000 00:17:22.000 Diploma
556 1142 RAMOS Gonzalo -484 Home 00:41:05.000 00:17:25.000 Diploma
557 1054 DE LOS MOZOS IBAÑEZ Francesc -485 Home 00:41:06.000 00:17:26.000 Diploma
558 1189 QUIROGA MARTIN Laura -73 Dona 00:41:07.000 00:17:27.000 Diploma
558 863 GIFRA BARBANY Jordi -486 Home 00:41:07.000 00:17:27.000 Diploma
560 1100 JIMENEZ ARGÜELLO Sandra -74 Dona 00:41:14.000 00:17:34.000 Diploma
561 833 LEN ABAD Oscar -487 Home 00:41:17.000 00:17:37.000 Diploma
562 803 MORLAS FAULON Carlos -488 Home 00:41:18.000 00:17:38.000 Diploma
563 38 LLOSADA GISTAU Joan -489 Home 00:41:19.000 00:17:39.000 Diploma
564 559 BROTONS CUIXART Daniel -490 Home 00:41:21.000 00:17:41.000 Diploma
565 84 BUCH SAINZ Edgar -491 Home 00:41:22.000 00:17:42.000 Diploma
566 194 LUQUE CRUZ Jose -492 Home 00:41:24.000 00:17:44.000 Diploma
567 466 SIERRA VINUESA Ana -75 Dona 00:41:25.000 00:17:45.000 Diploma
567 189 FAUS Miquel -493 Home 00:41:25.000 00:17:45.000 Diploma
569 964 VENTURA NADAL Ignasi -494 Home 00:41:26.000 00:17:46.000 Diploma
570 332 FERNANDEZ MARTI Ramon -495 Home 00:41:30.000 00:17:50.000 Diploma
570 246 GUTIÉRREZ DÍAZ Javier -495 Home 00:41:30.000 00:17:50.000 Diploma
572 676 PIZARRO JODAR Javier -497 Home 00:41:32.000 00:17:52.000 Diploma
573 370 BLASCO SERRA Gemma -76 Dona 00:41:34.000 00:17:54.000 Diploma
574 243 GODOY BALADA Marta -77 Dona 00:41:36.000 00:17:56.000 Diploma
575 1171 PÉREZ CARRASCO Marcos -498 Home 00:41:37.000 00:17:57.000 Diploma
576 129 DRUGUET Montse -78 Dona 00:41:42.000 00:18:02.000 Diploma
577 473 CALDÉS CASAS Joan -499 Home 00:41:44.000 00:18:04.000 Diploma
577 136 BEA BONET Joaquim -499 Home 00:41:44.000 00:18:04.000 Diploma
579 938 ANGLES Esteve -501 Home 00:41:45.000 00:18:05.000 Diploma
579 420 CLARAMUNT MILLAN David -501 Home 00:41:45.000 00:18:05.000 Diploma
579 125 VANDIONANT Veerle -79 Dona 00:41:45.000 00:18:05.000 Diploma
582 626 CANTÓ JORDI Sergi -503 Home 00:41:46.000 00:18:06.000 Diploma
582 476 MATEU SÁNCHEZ Xavier -503 Home 00:41:46.000 00:18:06.000 Diploma
584 1057 SAAVEDRA PLATA Jessyka -80 Dona 00:41:47.000 00:18:07.000 Diploma
584 990 PIFARRÉ Josep -505 Home 00:41:47.000 00:18:07.000 Diploma
586 921 PEINADO CAPDEVILA Alba -81 Dona 00:41:49.000 00:18:09.000 Diploma
587 114 PARDO MUMBARDÓ Juanje -506 Home 00:41:53.000 00:18:13.000 Diploma
588 525 ABRIL MARTÍNEZ Tomás -507 Home 00:41:55.000 00:18:15.000 Diploma
589 459 MAURI FORASTIER Cristina -82 Dona 00:41:56.000 00:18:16.000 Diploma
590 321 MEDINA MIRACLE Lluis -508 Home 00:41:57.000 00:18:17.000 Diploma
591 692 ARNELLA PALOMÉS Daniel -509 Home 00:41:58.000 00:18:18.000 Diploma
591 339 FINA MAGLIULO Sergi -509 Home 00:41:58.000 00:18:18.000 Diploma
591 336 CAMPS COLOMER Joan -509 Home 00:41:58.000 00:18:18.000 Diploma
591 322 LLOBET CONTIJOCH Carles -509 Home 00:41:58.000 00:18:18.000 Diploma
595 204 MORENO PARDO Fernando -513 Home 00:41:59.000 00:18:19.000 Diploma
596 1154 DAVINS Gloria -83 Dona 00:42:00.000 00:18:20.000 Diploma
597 1116 ARAMON MASSOT Joan -514 Home 00:42:05.000 00:18:25.000 Diploma
598 375 PIE ESCORIHUELA Marisa -84 Dona 00:42:06.000 00:18:26.000 Diploma
599 684 CARAGOL LORENZO Gabriel -515 Home 00:42:07.000 00:18:27.000 Diploma
599 647 OLIVARES SERRANO Anna -85 Dona 00:42:07.000 00:18:27.000 Diploma
599 636 CASALS DALMAU Josep Maria -515 Home 00:42:07.000 00:18:27.000 Diploma
602 864 GIFRA BARBANY Pau -517 Home 00:42:09.000 00:18:29.000 Diploma
603 861 GIFRA DURALL Orio -518 Home 00:42:10.000 00:18:30.000 Diploma
604 1096 VALLCORBA BORRELL Xavier -519 Home 00:42:13.000 00:18:33.000 Diploma
604 338 FINA CARRERAS Carlos -519 Home 00:42:13.000 00:18:33.000 Diploma
606 849 CONESA PAGÈS Alfons -521 Home 00:42:14.000 00:18:34.000 Diploma
606 519 PUIG Berta -86 Dona 00:42:14.000 00:18:34.000 Diploma
608 602 FOLCH MAS Jordi -522 Home 00:42:17.000 00:18:37.000 Diploma
609 1182 GIUFFRE Ricardo Martin -523 Home 00:42:18.000 00:18:38.000 Diploma
609 822 DIEZ HERNANDEZ David -523 Home 00:42:18.000 00:18:38.000 Diploma
609 478 CORONAS ARROYO Carolina -87 Dona 00:42:18.000 00:18:38.000 Diploma
612 379 PEDROL Marta -88 Dona 00:42:20.000 00:18:40.000 Diploma
613 222 SUAY GUERRERO Carlos -525 Home 00:42:22.000 00:18:42.000 Diploma
614 1094 DINARES CARDENAL Monica -89 Dona 00:42:23.000 00:18:43.000 Diploma
614 1060 MAFFI Fernando -526 Home 00:42:23.000 00:18:43.000 Diploma
614 275 FERNÁNDEZ Ester -89 Dona 00:42:23.000 00:18:43.000 Diploma
617 1111 AMALFI Maria Eugenia -91 Dona 00:42:24.000 00:18:44.000 Diploma
617 389 ALONSO Miriam -91 Dona 00:42:24.000 00:18:44.000 Diploma
617 300 VALLS BONELLS Francesc -527 Home 00:42:24.000 00:18:44.000 Diploma
620 1012 RODES CREXELLS Marc -528 Home 00:42:25.000 00:18:45.000 Diploma
620 266 ROSET DE ANDRÉS Esther -93 Dona 00:42:25.000 00:18:45.000 Diploma
622 1198 PALACIOS MARTÍNEZ Daniel -529 Home 00:42:27.000 00:18:47.000 Diploma
622 926 PAZMIÑO Miriam -94 Dona 00:42:27.000 00:18:47.000 Diploma
622 743 CARRERAS ALVAREZ Josep -529 Home 00:42:27.000 00:18:47.000 Diploma
625 746 MESSAGUER Eva -531 Home 00:42:28.000 00:18:48.000 Diploma
625 744 FARRE AGUILAR Meritxell -531 Home 00:42:28.000 00:18:48.000 Diploma
627 447 MARIN PALACIOS Lucas & Jose -533 Home 00:42:29.000 00:18:49.000 Diploma
627 26 MACAYA ROCAMORA Carlos -533 Home 00:42:29.000 00:18:49.000 Diploma
629 115 VALERO PASCUAL Josep M. -535 Home 00:42:30.000 00:18:50.000 Diploma
630 1025 ESPUELAS MARTINEZ Jose Manuel -536 Home 00:42:32.000 00:18:52.000 Diploma
630 995 JORDANA SERRA Isaac -536 Home 00:42:32.000 00:18:52.000 Diploma
632 415 CASTELLVI GUILLAUMES Laura -95 Dona 00:42:33.000 00:18:53.000 Diploma
632 398 TOR VISUS Oriol -538 Home 00:42:33.000 00:18:53.000 Diploma
634 1152 GIL VILAR Nando -539 Home 00:42:35.000 00:18:55.000 Diploma
635 548 DE SARRAGA BARTLETT Pablo -540 Home 00:42:37.000 00:18:57.000 Diploma
636 903 FEIXA QUER Maria -96 Dona 00:42:40.000 00:19:00.000 Diploma
637 1183 GOMEZ BELLVER Luis Manuel -541 Home 00:42:41.000 00:19:01.000 Diploma
638 673 PASTOR GAMÓN David -542 Home 00:42:43.000 00:19:03.000 Diploma
639 979 REVERTE CALACEIT Pepe -543 Home 00:42:45.000 00:19:05.000 Diploma
639 978 BRUY DE SAN FRANCISCO Xavier -543 Home 00:42:45.000 00:19:05.000 Diploma
641 74 VILARDELL MARQUÈS Mateu -545 Home 00:42:55.000 00:19:15.000 Diploma
642 44 MARTÍNEZ SUÑE Eva -97 Dona 00:42:58.000 00:19:18.000 Diploma
643 670 VIÑETA NEVADO Angel -546 Home 00:43:00.000 00:19:20.000 Diploma
643 529 VELEZ Claudia -98 Dona 00:43:00.000 00:19:20.000 Diploma
645 226 SOTO MARTÍN Àngel -547 Home 00:43:01.000 00:19:21.000 Diploma
645 118 LÓPEZ Eduardo -547 Home 00:43:01.000 00:19:21.000 Diploma
645 72 CANET Juan Antonio -547 Home 00:43:01.000 00:19:21.000 Diploma
648 641 OYONARTE FERNÁNDEZ Alicia -99 Dona 00:43:03.000 00:19:23.000 Diploma
649 883 DE LA FLOR CARO Clara -100 Dona 00:43:04.000 00:19:24.000 Diploma
650 827 MARTINEZ DIAZ Raquel -101 Dona 00:43:05.000 00:19:25.000 Diploma
651 945 PEY I LLANES Montserrat -102 Dona 00:43:07.000 00:19:27.000 Diploma
651 498 CASELLAS PLADEVALL Silvia -102 Dona 00:43:07.000 00:19:27.000 Diploma
653 1092 SANCHO SENALLÉ Anna -104 Dona 00:43:08.000 00:19:28.000 Diploma
653 682 DÍAZ GUARDIA Moisés -550 Home 00:43:08.000 00:19:28.000 Diploma
655 1081 MOLINA LÓPEZ Joaquim -551 Home 00:43:16.000 00:19:36.000 Diploma
656 509 SALVANS BLANC Carlos -552 Home 00:43:17.000 00:19:37.000 Diploma
656 201 DE CARRERAS RAMIÓ Marta -105 Dona 00:43:17.000 00:19:37.000 Diploma
658 635 TORRES BAUDET Ricardo -553 Home 00:43:18.000 00:19:38.000 Diploma
659 1132 FERNANDEZ Eva -106 Dona 00:43:22.000 00:19:42.000 Diploma
659 259 PASSALACQUA Maria -106 Dona 00:43:22.000 00:19:42.000 Diploma
661 435 VIÑALS I MIRALLES Francesc -554 Home 00:43:23.000 00:19:43.000 Diploma
662 1176 EMILIO POU Sussi -108 Dona 00:43:24.000 00:19:44.000 Diploma
662 437 VIÑALS I SEGALÉS Queralt -108 Dona 00:43:24.000 00:19:44.000 Diploma
664 165 SAN INOCENCIO Conrado -555 Home 00:43:27.000 00:19:47.000 Diploma
665 166 GARCIA VALLEJO Francois-Xavier -556 Home 00:43:28.000 00:19:48.000 Diploma
666 603 PEREZ SEGARRA Carlos David -557 Home 00:43:31.000 00:19:51.000 Diploma
666 270 TORRES Maica -110 Dona 00:43:31.000 00:19:51.000 Diploma
668 1085 BLASCO ESTEVEZ Cristina -111 Dona 00:43:36.000 00:19:56.000 Diploma
668 494 LOPEZ MARIN Laura -111 Dona 00:43:36.000 00:19:56.000 Diploma
670 687 PEREZ LOPEZ DE BRIÑAS Manuel -558 Home 00:43:37.000 00:19:57.000 Diploma
670 686 KNUTH Pedro -558 Home 00:43:37.000 00:19:57.000 Diploma
672 815 CLERIES I ROBINAT Ramon -560 Home 00:43:39.000 00:19:59.000 Diploma
672 16 PELLICER Ramon -560 Home 00:43:39.000 00:19:59.000 Diploma
674 73 DUBAN Isabelle -113 Dona 00:43:41.000 00:20:01.000 Diploma
675 1009 MARTIN SEBASTIAN Carlos -562 Home 00:43:42.000 00:20:02.000 Diploma
675 1007 MARTÍN SEBASTIÁN Jaime -562 Home 00:43:42.000 00:20:02.000 Diploma
675 881 PORTA PALAU Josep Maria -562 Home 00:43:42.000 00:20:02.000 Diploma
675 879 JANER ARASA Maria -114 Dona 00:43:42.000 00:20:02.000 Diploma
679 1052 GARCIA MARC Silvia -115 Dona 00:43:43.000 00:20:03.000 Diploma
680 1127 RAMÍREZ GONZALEZ Alejandro De Jesús -565 Home 00:43:44.000 00:20:04.000 Diploma
681 1110 GÁZQUEZ JIMÉNEZ Marisol -116 Dona 00:43:45.000 00:20:05.000 Diploma
681 334 RODRIGUEZ Sonia -116 Dona 00:43:45.000 00:20:05.000 Diploma
683 333 PUIG Jordi -566 Home 00:43:46.000 00:20:06.000 Diploma
683 239 MASFERRER PAGES Josep Lluis -566 Home 00:43:46.000 00:20:06.000 Diploma
685 388 LLAMAS MAESE Yaiza -118 Dona 00:43:47.000 00:20:07.000 Diploma
686 829 MOTA MASQUÉ Neus -119 Dona 00:43:48.000 00:20:08.000 Diploma
687 860 SARRIÓN GUSTEMS Neus -120 Dona 00:43:49.000 00:20:09.000 Diploma
687 397 MONRAS ROMERO Jessica -120 Dona 00:43:49.000 00:20:09.000 Diploma
689 261 FIORI Michele -568 Home 00:43:51.000 00:20:11.000 Diploma
690 662 RUANO CRUZ Alfons -569 Home 00:43:57.000 00:20:17.000 Diploma
691 1185 ROMEU PORTA Lluís -570 Home 00:44:00.000 00:20:20.000 Diploma
691 1184 MESTRES ACIN Anna -122 Dona 00:44:00.000 00:20:20.000 Diploma
693 492 MÉNDEZ RE Juan Antonio -571 Home 00:44:01.000 00:20:21.000 Diploma
694 327 ANICETO MARTÍNEZ Albert -572 Home 00:44:02.000 00:20:22.000 Diploma
695 610 PUJOL ANGLADA Jaume -573 Home 00:44:05.000 00:20:25.000 Diploma
696 1086 MARTIN ALONSO Marc -574 Home 00:44:06.000 00:20:26.000 Diploma
696 357 ROIG Raül -574 Home 00:44:06.000 00:20:26.000 Diploma
698 919 GRAU BARRERA Belen -123 Dona 00:44:07.000 00:20:27.000 Diploma
699 1129 RUIZ DE BUSTILLO PONT Joan -576 Home 00:44:08.000 00:20:28.000 Diploma
699 977 BORDONABA Sergio -576 Home 00:44:08.000 00:20:28.000 Diploma
699 423 DE GISPERT GENER Carles -576 Home 00:44:08.000 00:20:28.000 Diploma
699 75 CASAJOANA MESTRES Abril -124 Dona 00:44:08.000 00:20:28.000 Diploma
699 65 PUYAL BELLMUNT Santi -576 Home 00:44:08.000 00:20:28.000 Diploma
704 106 BETRAN MARTÍNEZ Carlos -580 Home 00:44:10.000 00:20:30.000 Diploma
705 1131 PORTÉ I SUAREZ Manel -581 Home 00:44:11.000 00:20:31.000 Diploma
706 1000 ERILL SAGALÉS Nadina -125 Dona 00:44:12.000 00:20:32.000 Diploma
707 326 DONNICI GARCÍA Silvia -126 Dona 00:44:13.000 00:20:33.000 Diploma
708 596 SERRAMIA AGUILERA David -582 Home 00:44:15.000 00:20:35.000 Diploma
708 580 DIAZ LERMA Ricardo -582 Home 00:44:15.000 00:20:35.000 Diploma
710 1117 CARNÉ ROMERO Jose Maria -584 Home 00:44:16.000 00:20:36.000 Diploma
711 1167 BANCELLS TREMOLS David -585 Home 00:44:17.000 00:20:37.000 Diploma
711 745 AGUILAR ESPINOSA Montserrat -127 Dona 00:44:17.000 00:20:37.000 Diploma
713 974 SÁNCHEZ MOLINA Hugo -586 Home 00:44:18.000 00:20:38.000 Diploma
713 56 BABOT LEON Quique -586 Home 00:44:18.000 00:20:38.000 Diploma
715 991 GARCÍA AMAT Tomás -588 Home 00:44:20.000 00:20:40.000 Diploma
716 256 IRANZO Cristina -128 Dona 00:44:21.000 00:20:41.000 Diploma
717 1014 NAVARRO David -589 Home 00:44:22.000 00:20:42.000 Diploma
718 386 BAEZA Nacho -590 Home 00:44:27.000 00:20:47.000 Diploma
719 550 CAPDEVILA BATLLE Joan -591 Home 00:44:28.000 00:20:48.000 Diploma
719 62 DE MÚLLER MALLOL Elena -129 Dona 00:44:28.000 00:20:48.000 Diploma
721 821 CARRETER SISQUELLA Adriana -130 Dona 00:44:29.000 00:20:49.000 Diploma
721 609 CARDONA ARNAU Urbici -592 Home 00:44:29.000 00:20:49.000 Diploma
723 608 PUJADAS PUÑET Elena -131 Dona 00:44:30.000 00:20:50.000 Diploma
723 110 CASTELLS MOMPART Ramon -593 Home 00:44:30.000 00:20:50.000 Diploma
725 1064 ROCA GARCIA Cristina -132 Dona 00:44:31.000 00:20:51.000 Diploma
725 660 FÀBREGAS GUZMAN Sasha -594 Home 00:44:31.000 00:20:51.000 Diploma
725 656 ALBIÑANA ROSIQUE Daniel -594 Home 00:44:31.000 00:20:51.000 Diploma
728 9 BERNABÉ PINÓS Toni -596 Home 00:44:32.000 00:20:52.000 Diploma
729 959 NOFRARIAS SERRA Miquel -597 Home 00:44:35.000 00:20:55.000 Diploma
729 661 GUZMAN HERRANZ Susana -133 Dona 00:44:35.000 00:20:55.000 Diploma
731 583 CUERVO LÓPEZ Marta -134 Dona 00:44:36.000 00:20:56.000 Diploma
731 578 RECIO VAQUÉ Xavi -598 Home 00:44:36.000 00:20:56.000 Diploma
733 851 GANCHEGUI Hirune -135 Dona 00:44:39.000 00:20:59.000 Diploma
733 841 PIJOAN FORCADA Meritxell -135 Dona 00:44:39.000 00:20:59.000 Diploma
735 469 PONTACQ SEGURANYES Jordi -599 Home 00:44:41.000 00:21:01.000 Diploma
736 691 SANCHEZ PEACHAM Samuel -600 Home 00:44:42.000 00:21:02.000 Diploma
736 690 PEREZ PRUNELL Eva -137 Dona 00:44:42.000 00:21:02.000 Diploma
738 998 BACH CALSAMIGLIA Julia -138 Dona 00:44:43.000 00:21:03.000 Diploma
739 585 ARGEMI DONCEL Hector -601 Home 00:44:44.000 00:21:04.000 Diploma
740 1108 MARCOS CLEMENTE Luis -602 Home 00:44:45.000 00:21:05.000 Diploma
741 572 COPETE VIDAL Teresa -139 Dona 00:44:46.000 00:21:06.000 Diploma
742 704 JIMENEZ ZENTENO Cesar -603 Home 00:44:47.000 00:21:07.000 Diploma
743 918 SEGARRA GARCIA Rosa -604 Home 00:44:48.000 00:21:08.000 Diploma
743 524 BARBERÀ BOJ Marc -604 Home 00:44:48.000 00:21:08.000 Diploma
743 134 BASART LOLO Sílvia -140 Dona 00:44:48.000 00:21:08.000 Diploma
746 272 SILVA FRANCO Dolors -141 Dona 00:44:49.000 00:21:09.000 Diploma
747 458 GALLOSTRA ISERN Juan -606 Home 00:44:54.000 00:21:14.000 Diploma
748 531 GROS ARTEAGA Javier -607 Home 00:44:55.000 00:21:15.000 Diploma
749 511 MONJE PUIGDENGOLAS Olga -142 Dona 00:44:59.000 00:21:19.000 Diploma
749 499 MONJE PUIGDENGOLAS Oscar -608 Home 00:44:59.000 00:21:19.000 Diploma
751 659 BAGOT GRAU Rafel -609 Home 00:45:01.000 00:21:21.000 Diploma
752 880 PEREZ GUARNE Roger -610 Home 00:45:05.000 00:21:25.000 Diploma
752 107 GONZALEZ TRÖGER Sandra -143 Dona 00:45:05.000 00:21:25.000 Diploma
754 878 PEREZ GUARNE Adrià -611 Home 00:45:06.000 00:21:26.000 Diploma
754 111 TORRES JORDI Santi -611 Home 00:45:06.000 00:21:26.000 Diploma
756 1144 MESA Yuriel -613 Home 00:45:08.000 00:21:28.000 Diploma
757 102 BALLBE Elisabeth -144 Dona 00:45:09.000 00:21:29.000 Diploma
758 1147 MORAGES Pol -614 Home 00:45:10.000 00:21:30.000 Diploma
758 411 BERNABEU BOU María Teresa -145 Dona 00:45:10.000 00:21:30.000 Diploma
758 163 CARRETER FELIP Jaime -614 Home 00:45:10.000 00:21:30.000 Diploma
761 870 PEREZ VILLALBA Tomas -616 Home 00:45:11.000 00:21:31.000 Diploma
761 137 COLOMER MARTI Marcos -616 Home 00:45:11.000 00:21:31.000 Diploma
763 1166 SERRA TICO Jordi -618 Home 00:45:12.000 00:21:32.000 Diploma
764 1101 FORNESA ARTAMENDI Alberta -146 Dona 00:45:14.000 00:21:34.000 Diploma
765 1105 REQUENO VILASAU Javier -619 Home 00:45:15.000 00:21:35.000 Diploma
766 400 GRACIA LACALLE Xavier -620 Home 00:45:16.000 00:21:36.000 Diploma
767 1031 PLANCHERIA COLL Isidre -621 Home 00:45:20.000 00:21:40.000 Diploma
767 360 GOMEZ LOPEZ Judith -147 Dona 00:45:20.000 00:21:40.000 Diploma
769 361 VERDU CARRERAS Enrique -622 Home 00:45:21.000 00:21:41.000 Diploma
770 930 CABRERA ANDREU Claudia -148 Dona 00:45:22.000 00:21:42.000 Diploma
770 875 ORIOL CASTELLA Ferran -623 Home 00:45:22.000 00:21:42.000 Diploma
770 874 ARRONES DIAZ Mercedes -148 Dona 00:45:22.000 00:21:42.000 Diploma
770 148 MATEO CACHO Jose Raul -623 Home 00:45:22.000 00:21:42.000 Diploma
774 484 CLUSELLA BERMEJO Lluís -625 Home 00:45:23.000 00:21:43.000 Diploma
774 146 BALIELLAS ROMERO Maria Del Mar -150 Dona 00:45:23.000 00:21:43.000 Diploma
776 483 BARATECH PENINA Maite -151 Dona 00:45:24.000 00:21:44.000 Diploma
776 353 SAUMELL GUSI Esther -151 Dona 00:45:24.000 00:21:44.000 Diploma
776 205 GONZALEZ Oscar -626 Home 00:45:24.000 00:21:44.000 Diploma
779 976 BAYO BRAUT Laura -153 Dona 00:45:25.000 00:21:45.000 Diploma
780 1138 DOMENECH Arola -154 Dona 00:45:26.000 00:21:46.000 Diploma
780 402 GIMENO I GARCIA Elisabet -154 Dona 00:45:26.000 00:21:46.000 Diploma
780 324 VERDAGUER VILA Montse -154 Dona 00:45:26.000 00:21:46.000 Diploma
780 250 ALSINA FERNÁNDEZ Anna -154 Dona 00:45:26.000 00:21:46.000 Diploma
780 206 GONZALEZ Aitor -627 Home 00:45:26.000 00:21:46.000 Diploma
780 162 SISQUELLA ENJUANES Eulalia -154 Dona 00:45:26.000 00:21:46.000 Diploma
786 251 MUÑOZ MARTIN Jordi -628 Home 00:45:27.000 00:21:47.000 Diploma
787 928 PAZMIÑO HURTADO Adilma -159 Dona 00:45:29.000 00:21:49.000 Diploma
787 199 BAETA Eduard -629 Home 00:45:29.000 00:21:49.000 Diploma
789 1053 GAVILAN IRANZO Marc -630 Home 00:45:34.000 00:21:54.000 Diploma
790 920 SERRA BAUCELLS Inés -160 Dona 00:45:35.000 00:21:55.000 Diploma
791 631 DE ANDRÉS MAQUEDA Georgina -161 Dona 00:45:39.000 00:21:59.000 Diploma
792 555 SEGALES COMAS Roser -162 Dona 00:45:42.000 00:22:02.000 Diploma
793 730 ESCUDERO TEIXIDÓ Jorge -631 Home 00:45:43.000 00:22:03.000 Diploma
794 756 GÓMEZ CAÑAS Almudena -163 Dona 00:45:44.000 00:22:04.000 Diploma
795 181 CASADO DE LA CRUZ Ana María -164 Dona 00:45:48.000 00:22:08.000 Diploma
796 81 DOPAZO Josep -632 Home 00:45:49.000 00:22:09.000 Diploma
797 1033 RODRIGUEZ RODRIGUEZ Andres -633 Home 00:45:50.000 00:22:10.000 Diploma
797 277 FERNÁNDEZ Mamen -165 Dona 00:45:50.000 00:22:10.000 Diploma
799 37 PONS Mariona -166 Dona 00:45:52.000 00:22:12.000 Diploma
800 63 BALLETBÒ I SERRA Enric -634 Home 00:45:53.000 00:22:13.000 Diploma
801 378 ANFRUNS DAMIANS Georgina -167 Dona 00:45:54.000 00:22:14.000 Diploma
801 171 NOGUERAS CASAÑAS Montse -167 Dona 00:45:54.000 00:22:14.000 Diploma
803 551 SALAZAR MIGUEL Yolanda -169 Dona 00:45:58.000 00:22:18.000 Diploma
803 95 ARMADÀS MONCLÚS Joan Ramon -635 Home 00:45:58.000 00:22:18.000 Diploma
805 831 GALIPIENSO ALBELLA Teresa -170 Dona 00:45:59.000 00:22:19.000 Diploma
805 552 GOMEZ DEVESA Miguel Angel -636 Home 00:45:59.000 00:22:19.000 Diploma
807 868 LÓPEZ QUINTILLA Óscar -637 Home 00:46:00.000 00:22:20.000 Diploma
807 309 AUBÀ SALVADÓ Miquel -637 Home 00:46:00.000 00:22:20.000 Diploma
809 1197 MARQUÈS PUJOLAR Agnès -171 Dona 00:46:01.000 00:22:21.000 Diploma
809 867 PÉREZ FERRER Amalia -171 Dona 00:46:01.000 00:22:21.000 Diploma
809 314 DÍAZ ARIAS David -639 Home 00:46:01.000 00:22:21.000 Diploma
809 290 GONZALEZ NAVARRO Manuela -171 Dona 00:46:01.000 00:22:21.000 Diploma
813 289 SARLE Jordi -640 Home 00:46:02.000 00:22:22.000 Diploma
814 240 PIQUET Sergi -641 Home 00:46:03.000 00:22:23.000 Diploma
815 439 AUSIN OLIVERA Maria Eloisa -174 Dona 00:46:05.000 00:22:25.000 Diploma
816 178 GALTÉS Susana -175 Dona 00:46:06.000 00:22:26.000 Diploma
817 278 RAMOS SANCHEZ Jesus -642 Home 00:46:08.000 00:22:28.000 Diploma
818 279 RODRIGUEZ VALLEJO Victor -643 Home 00:46:09.000 00:22:29.000 Diploma
819 1115 VELARDE Antonio -644 Home 00:46:10.000 00:22:30.000 Diploma
819 407 CASCAN CASAÑAS Jordi -644 Home 00:46:10.000 00:22:30.000 Diploma
819 392 CARMONA MARTIN Mireia -176 Dona 00:46:10.000 00:22:30.000 Diploma
819 335 RIBERA DIAZ David -644 Home 00:46:10.000 00:22:30.000 Diploma
823 521 ARANDA VALERO Lidia -177 Dona 00:46:14.000 00:22:34.000 Diploma
823 236 NOLLA QUEVEDO Gema -177 Dona 00:46:14.000 00:22:34.000 Diploma
823 159 RIFA Lluisa -177 Dona 00:46:14.000 00:22:34.000 Diploma
826 34 MASCARELL CREUS Albert -647 Home 00:46:15.000 00:22:35.000 Diploma
827 401 DE LA TORRE JORDAN Jorge -648 Home 00:46:17.000 00:22:37.000 Diploma
828 576 GASPÀ GAMUNDI Patrícia -180 Dona 00:46:23.000 00:22:43.000 Diploma
828 574 GASPÀ GAMUNDI Anna -180 Dona 00:46:23.000 00:22:43.000 Diploma
830 950 BATET Gemma -182 Dona 00:46:24.000 00:22:44.000 Diploma
831 465 FÉRRIZ ROSELL Patricia -183 Dona 00:46:27.000 00:22:47.000 Diploma
832 925 SALA I BATLLE Teresa -184 Dona 00:46:30.000 00:22:50.000 Diploma
832 688 MARTIN FLOREZ Nuria -184 Dona 00:46:30.000 00:22:50.000 Diploma
834 299 CRISTAU LIRAS Maite -186 Dona 00:46:31.000 00:22:51.000 Diploma
835 722 OLONDRIZ MORAGAS Montserrat -187 Dona 00:46:34.000 00:22:54.000 Diploma
835 720 COBO LOPEZ Carolina -187 Dona 00:46:34.000 00:22:54.000 Diploma
837 671 CARBÓ SALICRÚ Adrià -649 Home 00:46:35.000 00:22:55.000 Diploma
838 1018 VILANOVA ROSSELL Cesc -650 Home 00:46:36.000 00:22:56.000 Diploma
839 683 LORENZO ADEVA Mariola -189 Dona 00:46:37.000 00:22:57.000 Diploma
839 681 DEVÍ BASTIDA Josep -651 Home 00:46:37.000 00:22:57.000 Diploma
839 196 LEÓN ESPITIA Anamaria -189 Dona 00:46:37.000 00:22:57.000 Diploma
842 1191 GARCIA SANZ Julia -191 Dona 00:46:41.000 00:23:01.000 Diploma
843 105 ALIENDE PONS Borja -652 Home 00:46:42.000 00:23:02.000 Diploma
844 1169 CABALLERO TOLEDO Andrés -653 Home 00:46:44.000 00:23:04.000 Diploma
845 811 BALAGUER IBEAS Núria -192 Dona 00:46:47.000 00:23:07.000 Diploma
846 1160 FERNANDEZ MORENO Mari Carmen -193 Dona 00:46:49.000 00:23:09.000 Diploma
847 2 CASAJOANA SINGLA Pere -654 Home 00:46:52.000 00:23:12.000 Diploma
848 837 MORTE ENRIQUEZ Cristina -194 Dona 00:46:56.000 00:23:16.000 Diploma
849 103 GUARDIA Silvia -195 Dona 00:46:58.000 00:23:18.000 Diploma
850 721 BOTET PLADEVALL Pere -655 Home 00:46:59.000 00:23:19.000 Diploma
851 674 MARTIN FLOREZ Roger -656 Home 00:47:02.000 00:23:22.000 Diploma
852 997 GONZÁLEZ-SICILIA IBARROLA Mónica -196 Dona 00:47:03.000 00:23:23.000 Diploma
853 996 PAZOS FELIUBADALO Óscar -657 Home 00:47:04.000 00:23:24.000 Diploma
854 264 SAIS VILA Nuria -197 Dona 00:47:15.000 00:23:35.000 Diploma
855 540 BOFILL CASANOVAS Arola -198 Dona 00:47:17.000 00:23:37.000 Diploma
855 263 SCHWABACH Marc -658 Home 00:47:17.000 00:23:37.000 Diploma
857 557 BLAZQUEZ PEREZ Ignasi -659 Home 00:47:21.000 00:23:41.000 Diploma
858 956 CESPEDOSA CAÑADA Montse -199 Dona 00:47:39.000 00:23:59.000 Diploma
859 124 GUARDIA OLMOS Joan -660 Home 00:47:40.000 00:24:00.000 Diploma
860 528 ASENJO Raquel -200 Dona 00:47:43.000 00:24:03.000 Diploma
861 390 COSP Maria Del Mar -201 Dona 00:47:48.000 00:24:08.000 Diploma
861 387 ESCRIBANO Eva -201 Dona 00:47:48.000 00:24:08.000 Diploma
863 810 ORTEGA GARCIA Gema -203 Dona 00:47:51.000 00:24:11.000 Diploma
863 363 OLIVER I GUSÓ Gal-La -203 Dona 00:47:51.000 00:24:11.000 Diploma
865 582 FERRERA HERMOSO David -661 Home 00:47:52.000 00:24:12.000 Diploma
865 526 ICART Oriol -661 Home 00:47:52.000 00:24:12.000 Diploma
865 36 MUNTASELL ALTÉS Martina -205 Dona 00:47:52.000 00:24:12.000 Diploma
868 1123 GARCIA JAUREGUIZAR David -663 Home 00:47:53.000 00:24:13.000 Diploma
869 1068 GÓMEZ MASQUEF Gemma -206 Dona 00:47:54.000 00:24:14.000 Diploma
869 948 ROLDAN Montse -206 Dona 00:47:54.000 00:24:14.000 Diploma
869 445 TRULLÀS COLL Mercè -206 Dona 00:47:54.000 00:24:14.000 Diploma
869 444 GARRIDO MOLINA Jonathan -664 Home 00:47:54.000 00:24:14.000 Diploma
869 170 PERÓ CEBOLLERO Maribel -206 Dona 00:47:54.000 00:24:14.000 Diploma
874 318 SALA BAIGET Neus -210 Dona 00:47:55.000 00:24:15.000 Diploma
875 79 SEGURA BOU Oriol -665 Home 00:47:56.000 00:24:16.000 Diploma
876 1077 WILKINSON Pablo -666 Home 00:47:57.000 00:24:17.000 Diploma
877 175 FERNÁNDEZ GALERA Maribel -211 Dona 00:47:58.000 00:24:18.000 Diploma
878 885 CACHOPO Susana -212 Dona 00:48:01.000 00:24:21.000 Diploma
878 825 BORRELL BOSCH Marc -667 Home 00:48:01.000 00:24:21.000 Diploma
880 717 VILA ROCA Idoia -213 Dona 00:48:02.000 00:24:22.000 Diploma
881 470 SÁNCHEZ FONTANÉ Mariona -214 Dona 00:48:05.000 00:24:25.000 Diploma
882 972 NAZAR VILLAFAÑE Claudia -215 Dona 00:48:08.000 00:24:28.000 Diploma
883 645 PAZOS CASTAÑO Fer -216 Dona 00:48:09.000 00:24:29.000 Diploma
883 253 TORIBIO Maria -216 Dona 00:48:09.000 00:24:29.000 Diploma
885 727 RODRIGUEZ TORMO Laia -218 Dona 00:48:16.000 00:24:36.000 Diploma
886 187 DONCEL DEULOFEU Ana -219 Dona 00:48:21.000 00:24:41.000 Diploma
887 188 LAUCIRICA ALABER Josep Anton -668 Home 00:48:22.000 00:24:42.000 Diploma
888 994 CALSAMIGLIA GARCÍA Lida -220 Dona 00:48:26.000 00:24:46.000 Diploma
889 894 BENET MARTÍNEZ Alex -669 Home 00:48:29.000 00:24:49.000 Diploma
890 893 GARCÍA RODRÍGUEZ Joan Carles -670 Home 00:48:30.000 00:24:50.000 Diploma
891 1011 FERNANDEZ JOU Blanca -221 Dona 00:48:38.000 00:24:58.000 Diploma
892 873 CANO GUILLEN Oscar -671 Home 00:48:41.000 00:25:01.000 Diploma
893 385 TORRES JULIÁ Cristina -222 Dona 00:48:46.000 00:25:06.000 Diploma
894 419 UTRERA MORENO Patricia -223 Dona 00:48:48.000 00:25:08.000 Diploma
894 135 FERNÁNDEZ ALONSO Sergio -672 Home 00:48:48.000 00:25:08.000 Diploma
896 534 VILALTA SERIOLS Sílvia -224 Dona 00:48:50.000 00:25:10.000 Diploma
897 639 NAVAS FERNANDEZ Sylvia -225 Dona 00:48:52.000 00:25:12.000 Diploma
898 1161 DRAGT Roland -673 Home 00:48:54.000 00:25:14.000 Diploma
898 21 GIL CARNOTA Judith -226 Dona 00:48:54.000 00:25:14.000 Diploma
900 23 SANS VALLS Santi -674 Home 00:48:55.000 00:25:15.000 Diploma
901 120 BERINI MARSAL Chantal -227 Dona 00:48:59.000 00:25:19.000 Diploma
902 931 BOIXEDA BIGAS Alex -675 Home 00:49:00.000 00:25:20.000 Diploma
902 759 CARRERA Claudia -228 Dona 00:49:00.000 00:25:20.000 Diploma
904 40 FERRER EZEQUIEL Silvia -229 Dona 00:49:01.000 00:25:21.000 Diploma
905 210 PERMANYER CARNER Gemma -230 Dona 00:49:07.000 00:25:27.000 Diploma
906 619 RUIZ VILLEGAS Lycie -231 Dona 00:49:09.000 00:25:29.000 Diploma
907 616 RUIZ GARCIA Siscu -676 Home 00:49:10.000 00:25:30.000 Diploma
908 1196 PORTELA RODRIGUEZ Ana -232 Dona 00:49:12.000 00:25:32.000 Diploma
909 680 PICASSO Carlos Matías -677 Home 00:49:13.000 00:25:33.000 Diploma
910 934 VILALTA NICUESA Lourdes -233 Dona 00:49:14.000 00:25:34.000 Diploma
911 936 ONDATEGUI GARCIA Lourdes -234 Dona 00:49:15.000 00:25:35.000 Diploma
911 543 CARO GUEDEA Jaime Ignacio -678 Home 00:49:15.000 00:25:35.000 Diploma
913 354 HOSPITAL HAFNER Beatriz -235 Dona 00:49:19.000 00:25:39.000 Diploma
914 320 VALLCORBA BORRELL Montse -236 Dona 00:49:20.000 00:25:40.000 Diploma
915 1073 ARNAUS FERRER Susanna -237 Dona 00:49:21.000 00:25:41.000 Diploma
916 348 QUITO RIVERA Elizabeth -238 Dona 00:49:22.000 00:25:42.000 Diploma
917 1093 VINTRO ANGLES Aleix -679 Home 00:49:26.000 00:25:46.000 Diploma
918 564 BELTRÁN HERNÁNDEZ Amanda -239 Dona 00:49:31.000 00:25:51.000 Diploma
919 565 FRADEJAS SERRAT Alba -240 Dona 00:49:32.000 00:25:52.000 Diploma
920 276 MENDILUCE Concha -241 Dona 00:49:35.000 00:25:55.000 Diploma
921 813 GIMÉNEZ ROCA Carlos -680 Home 00:49:38.000 00:25:58.000 Diploma
921 677 COSTA GUZMAN Alfonso -680 Home 00:49:38.000 00:25:58.000 Diploma
923 192 FONS Gemma -242 Dona 00:49:39.000 00:25:59.000 Diploma
924 590 BOFILL CASANOVAS Marta -243 Dona 00:49:44.000 00:26:04.000 Diploma
925 1071 CRUZ AYUSO Irma -244 Dona 00:49:47.000 00:26:07.000 Diploma
926 198 CATAFAL GARRIGA Cristina -245 Dona 00:49:53.000 00:26:13.000 Diploma
927 127 PALLEJÀ ROSICH Jordi -682 Home 00:49:59.000 00:26:19.000 Diploma
928 1002 CODINA NOGUES Anna -246 Dona 00:50:04.000 00:26:24.000 Diploma
928 844 SERRA MOYA Clara -246 Dona 00:50:04.000 00:26:24.000 Diploma
930 139 CARULLA PAHL Daniel -683 Home 00:50:07.000 00:26:27.000 Diploma
931 544 SÁNCHEZ MARTÍNEZ Núria -248 Dona 00:50:11.000 00:26:31.000 Diploma
932 35 LECHUGA CISNEROS Ricardo -684 Home 00:50:12.000 00:26:32.000 Diploma
933 262 ALEMANY CANALS Neus -249 Dona 00:50:21.000 00:26:41.000 Diploma
934 257 PLANELLAS BASSOLS Conrad -685 Home 00:50:22.000 00:26:42.000 Diploma
935 986 MARTÍN Maite -250 Dona 00:50:23.000 00:26:43.000 Diploma
935 985 MARTÍN TAPIA Nuria -250 Dona 00:50:23.000 00:26:43.000 Diploma
935 843 RAGUÉS Laura -250 Dona 00:50:23.000 00:26:43.000 Diploma
938 966 MARTÍ PALAU Blanca -253 Dona 00:50:26.000 00:26:46.000 Diploma
939 965 TULDRÀ CASASA Xavier -686 Home 00:50:27.000 00:26:47.000 Diploma
940 729 ROSELL URIZ Henar -254 Dona 00:50:29.000 00:26:49.000 Diploma
941 1151 LEAL Francisco -687 Home 00:50:35.000 00:26:55.000 Diploma
941 1150 LARA Alba -255 Dona 00:50:35.000 00:26:55.000 Diploma
943 228 BARRACHINA RIBES Marta -256 Dona 00:50:37.000 00:26:57.000 Diploma
944 614 LOZANO GARCIA Sílvia -257 Dona 00:50:40.000 00:27:00.000 Diploma
945 605 MALDONADO PIJOAN Xaxier -688 Home 00:50:55.000 00:27:15.000 Diploma
945 604 GUILERA TEBÉ Núria -688 Home 00:50:55.000 00:27:15.000 Diploma
947 817 PASCUAL CLAVE Toni -258 Dona 00:50:57.000 00:27:17.000 Diploma
948 1714 CLAVERO ALARCÓN Emi -259 Dona 00:51:04.000 00:27:24.000 Diploma
948 1001 NAVARRO EZQUERRA Ana -259 Dona 00:51:04.000 00:27:24.000 Diploma
950 434 ALBERT GIL Mònica -261 Dona 00:51:06.000 00:27:26.000 Diploma
951 433 ALBERT GIL Judit -262 Dona 00:51:07.000 00:27:27.000 Diploma
952 151 GARCIA FRANCO Isabel -263 Dona 00:51:16.000 00:27:36.000 Diploma
953 149 GUARDIA TOMAS Jordi -690 Home 00:51:17.000 00:27:37.000 Diploma
954 963 MARTIN RICA Ingrid -264 Dona 00:51:26.000 00:27:46.000 Diploma
954 962 MARTIN DE LOS RIOS Antonio -691 Home 00:51:26.000 00:27:46.000 Diploma
956 1066 VILA Carles -692 Home 00:51:29.000 00:27:49.000 Diploma
956 857 VIDAL VILLAR Marc -692 Home 00:51:29.000 00:27:49.000 Diploma
958 383 TORRES LACAMBRA Joaquín -694 Home 00:51:30.000 00:27:50.000 Diploma
959 156 RODRÍGUEZ GALINDO Ignasi -695 Home 00:51:32.000 00:27:52.000 Diploma
960 155 BARBER ROSADO Juana -265 Dona 00:51:33.000 00:27:53.000 Diploma
960 152 ZARAGOZA FORMIGA Núria -265 Dona 00:51:33.000 00:27:53.000 Diploma
962 461 FERRIZ CANALS Daniel -696 Home 00:51:34.000 00:27:54.000 Diploma
963 305 BUSTAMANTE Sonia -267 Dona 00:51:35.000 00:27:55.000 Diploma
964 467 VARA Angel -697 Home 00:51:36.000 00:27:56.000 Diploma
965 71 MARISCAL PEREZ Sonia -268 Dona 00:51:41.000 00:28:01.000 Diploma
966 514 TORO LOPEZ Oscar -698 Home 00:51:42.000 00:28:02.000 Diploma
966 78 LLAVALL Nuria -269 Dona 00:51:42.000 00:28:02.000 Diploma
968 515 CALDERON MORON Rebeca -270 Dona 00:51:43.000 00:28:03.000 Diploma
969 260 MAYOL CIVICO Albert -699 Home 00:51:54.000 00:28:14.000 Diploma
969 258 MIQUEL FIGUEROL Eva -271 Dona 00:51:54.000 00:28:14.000 Diploma
971 1063 DE PRADO PÉREZ Luis -700 Home 00:51:56.000 00:28:16.000 Diploma
972 241 MEDARDE BARRAGAN Elena -272 Dona 00:52:02.000 00:28:22.000 Diploma
973 195 HELGUERA PEÑA Izaskun -273 Dona 00:52:03.000 00:28:23.000 Diploma
974 216 SAKUMA Emiko -274 Dona 00:52:16.000 00:28:36.000 Diploma
975 215 MASSANEDA SAKUMA Nae -275 Dona 00:52:17.000 00:28:37.000 Diploma
976 214 MASSANEDA SAKUMA Tami -276 Dona 00:52:19.000 00:28:39.000 Diploma
977 25 MARCOS ESPARZA Carlos -701 Home 00:52:28.000 00:28:48.000 Diploma
978 88 LLOVERAS MONSALVE Paula -277 Dona 00:52:58.000 00:29:18.000 Diploma
979 59 RAMOS SANTIAGO Berta -278 Dona 00:53:00.000 00:29:20.000 Diploma
980 291 IBÁÑEZ ZAFORAS Sara -279 Dona 00:53:16.000 00:29:36.000 Diploma
981 292 BORRELL PUJOL Jordi -702 Home 00:53:18.000 00:29:38.000 Diploma
981 288 AGUILAR ESCAT Javier -702 Home 00:53:18.000 00:29:38.000 Diploma
983 287 MORATA MALAPEIRA Marta -280 Dona 00:53:20.000 00:29:40.000 Diploma
984 725 ROSES MUNIENTE Laia -281 Dona 00:53:21.000 00:29:41.000 Diploma
985 422 PALMA TOMÀS Glòria -282 Dona 00:53:26.000 00:29:46.000 Diploma
986 723 DIAZ GONZALEZ David -704 Home 00:53:30.000 00:29:50.000 Diploma
987 143 ALTISEN PALMADA Susana -283 Dona 00:53:33.000 00:29:53.000 Diploma
988 668 CAMPOY GARCIA Silvia -284 Dona 00:53:37.000 00:29:57.000 Diploma
988 533 BLASCO FARELO Carlos -705 Home 00:53:37.000 00:29:57.000 Diploma
990 1172 TARRAGÓ BLAYA Ariadna -285 Dona 00:53:39.000 00:29:59.000 Diploma
991 679 VIDAL TORIBIO Mª Carmen -286 Dona 00:53:41.000 00:30:01.000 Diploma
992 27 NOTA Maria -287 Dona 00:53:47.000 00:30:07.000 Diploma
993 862 GIFRA BARBANY Bet -288 Dona 00:53:58.000 00:30:18.000 Diploma
994 94 BARBANY FREIXA Joana -289 Dona 00:53:59.000 00:30:19.000 Diploma
995 615 CASTELLÓ GIL Maria Gloria -290 Dona 00:54:16.000 00:30:36.000 Diploma
996 1037 CASTELLS MATARRODONA Sergi -706 Home 00:54:22.000 00:30:42.000 Diploma
997 1104 CASTELLANOS GIL Oriol -707 Home 00:54:23.000 00:30:43.000 Diploma
998 1107 GIL BARROSO Míriam -291 Dona 00:54:24.000 00:30:44.000 Diploma
999 1155 MATEU Jordi -708 Home 00:55:00.000 00:31:20.000 Diploma
1000 1193 VELASCO SANCHEZ Joan -709 Home 00:55:07.000 00:31:27.000 Diploma
1001 1141 VENTURA Olga -292 Dona 00:55:08.000 00:31:28.000 Diploma
1001 1120 LLEONART SUBIRANA Enric -710 Home 00:55:08.000 00:31:28.000 Diploma
1003 1070 ALCARAZ I GOMEZ Joan Tomas -711 Home 00:56:07.000 00:32:27.000 Diploma
1004 820 SARROCA CAMPAÑA Miguel Angel -712 Home 00:56:23.000 00:32:43.000 Diploma
1004 432 GIL MENDEZ Glòria -293 Dona 00:56:23.000 00:32:43.000 Diploma
1006 657 FERNANDEZ VENTURA Herman -713 Home 00:56:25.000 00:32:45.000 Diploma
1007 658 ROSALEN VILA Esther -294 Dona 00:56:26.000 00:32:46.000 Diploma
1008 731 QUILEZ GAMEZ Edgar -714 Home 00:56:35.000 00:32:55.000 Diploma
1009 733 ARMENGOL RUIZ Sandra -295 Dona 00:56:39.000 00:32:59.000 Diploma
1010 932 DIATTA DIASSY Lamine -715 Home 00:56:41.000 00:33:01.000 Diploma
1010 847 KOHN Jordi -715 Home 00:56:41.000 00:33:01.000 Diploma
1012 193 PEDRAGOSA MORGUI Gemma -296 Dona 00:56:47.000 00:33:07.000 Diploma
1013 738 CARDENAS VILCHEZ Andrea -297 Dona 00:57:03.000 00:33:23.000 Diploma
1014 739 VAZQUEZ DOMINGUEZ Alba -298 Dona 00:57:04.000 00:33:24.000 Diploma
1015 1029 ANGULO NOGUES Dolors -299 Dona 00:57:08.000 00:33:28.000 Diploma
1016 587 BENAIGESA CLAVELL Maria Del Mar -300 Dona 00:57:09.000 00:33:29.000 Diploma
1017 588 CHAMIZO AGUILERA Mario -717 Home 00:57:10.000 00:33:30.000 Diploma
1018 1062 ADMETLLA MASERAS Josep -718 Home 00:57:13.000 00:33:33.000 Diploma
1019 953 PORTABELLA SENDRA Maria -301 Dona 00:57:17.000 00:33:37.000 Diploma
1019 952 NÚÑEZ VICENTE Irina -301 Dona 00:57:17.000 00:33:37.000 Diploma
1021 20 SAMUELSON Olof -719 Home 00:57:43.000 00:34:03.000 Diploma
1021 15 SAMUELSON Rebeca -303 Dona 00:57:43.000 00:34:03.000 Diploma
1023 617 ARAMBUDO COMAS Anna -304 Dona 00:58:01.000 00:34:21.000 Diploma
1024 1114 XICOLA GALENDE Pablo -720 Home 00:58:26.000 00:34:46.000 Diploma
1024 1113 GALENDE GUERRA Marcela -305 Dona 00:58:26.000 00:34:46.000 Diploma
1026 1017 MARTÍNEZ MARTÍN Andrea -306 Dona 00:59:12.000 00:35:32.000 Diploma
1027 1016 JOFRE ANZANO Bernat -721 Home 00:59:13.000 00:35:33.000 Diploma
1028 663 PONCE BOSACOMA Ana -307 Dona 00:59:41.000 00:36:01.000 Diploma
1028 491 JIMÉNEZ ARCHILES Blanca -307 Dona 00:59:41.000 00:36:01.000 Diploma
1030 463 FERRIZ ROSELL Merlyn -309 Dona 01:00:00.000 00:36:20.000 Diploma
1030 462 ROSELL MURPHY Magdalena -309 Dona 01:00:00.000 00:36:20.000 Diploma
1032 1035 ABRIL CARRERES Àngels -311 Dona 01:00:37.000 00:36:57.000 Diploma
1032 1034 GARCIA VALLES Xavier -722 Home 01:00:37.000 00:36:57.000 Diploma
1034 431 OSES BRANDO Patricia -312 Dona 01:00:40.000 00:37:00.000 Diploma
1035 1078 SANS HERNANDEZ Lluis -723 Home 01:02:41.000 00:39:01.000 Diploma
1036 502 BARTOMEUS GALOBARDES Carme -313 Dona 01:02:43.000 00:39:03.000 Diploma
1037 516 NIETO PORTERO Maria Ascension -314 Dona 01:02:45.000 00:39:05.000 Diploma
1038 669 JANE GARRIGA Carles -724 Home 01:06:59.000 00:43:19.000 Diploma